DH1GAP-13 Weather Reports


time (UTC)temp
C
wind
direction
speed
KPH
gust
KPH
rain 1hr
cm
rain 24hr
cm
rain mn
cm
humidity
%
barometer
mb
20260507162309 17 337 0.0 0.0 0.00 0.10 0.00 53 1023.0
20260507162209 17 337 9.7 0.0 0.00 0.10 0.00 53 1023.0
20260507162109 17 0 8.0 0.0 0.00 0.10 0.00 53 1023.0
20260507162009 17 0 4.8 0.0 0.00 0.10 0.00 53 1023.0
20260507161909 17 337 9.7 0.0 0.00 0.10 0.00 52 1023.0
20260507161809 17 315 19.3 0.0 0.00 0.10 0.00 52 1023.0
20260507161709 17 0 17.7 0.0 0.00 0.10 0.00 52 1023.0
20260507161609 17 337 0.0 0.0 0.00 0.10 0.00 52 1023.0
20260507161509 18 315 16.1 0.0 0.00 0.10 0.00 52 1023.0
20260507161409 18 315 9.7 0.0 0.00 0.10 0.00 52 1023.0
20260507161309 18 337 25.7 0.0 0.00 0.10 0.00 52 1023.0
20260507161209 18 0 16.1 0.0 0.00 0.10 0.00 52 1023.0
20260507161109 18 337 9.7 0.0 0.00 0.10 0.00 52 1023.0
20260507161009 18 315 14.5 0.0 0.00 0.10 0.00 52 1023.0
20260507160909 18 315 4.8 0.0 0.00 0.10 0.00 52 1023.0
20260507160809 18 270 0.0 0.0 0.00 0.10 0.00 52 1023.0
20260507160709 18 270 0.0 0.0 0.00 0.10 0.00 52 1023.0
20260507160609 18 292 0.0 0.0 0.00 0.10 0.00 52 1023.0
20260507160509 18 315 0.0 0.0 0.00 0.10 0.00 52 1023.0
20260507160409 18 315 6.4 0.0 0.00 0.10 0.00 52 1023.0
20260507160309 18 315 14.5 0.0 0.00 0.10 0.00 52 1023.2
20260507160209 18 337 4.8 0.0 0.00 0.10 0.00 52 1023.0
20260507160109 18 337 0.0 0.0 0.00 0.10 0.00 52 1023.0
20260507160009 18 315 22.5 0.0 0.00 0.10 0.00 52 1023.0
20260507155909 18 292 0.0 0.0 0.00 0.10 0.00 52 1023.0
20260507155809 18 270 0.0 0.0 0.00 0.10 0.00 52 1023.0
20260507155709 18 270 0.0 0.0 0.00 0.10 0.00 52 1023.0
20260507155609 18 337 0.0 0.0 0.00 0.10 0.00 53 1023.0
20260507155509 18 337 1.6 0.0 0.00 0.10 0.00 53 1023.0
20260507155409 18 292 0.0 0.0 0.00 0.10 0.00 53 1023.0
20260507155309 18 270 0.0 0.0 0.00 0.10 0.00 53 1023.0
20260507155209 18 292 0.0 0.0 0.00 0.10 0.00 53 1023.2
20260507155109 18 315 9.7 0.0 0.00 0.10 0.00 53 1023.0
20260507155009 18 292 0.0 0.0 0.00 0.10 0.00 53 1023.0
20260507154909 18 270 0.0 0.0 0.00 0.10 0.00 53 1023.0
20260507154809 18 337 0.0 0.0 0.00 0.10 0.00 53 1023.0
20260507154709 18 315 0.0 0.0 0.00 0.10 0.00 53 1023.0
20260507154609 18 337 3.2 0.0 0.00 0.10 0.00 53 1023.2
20260507154510 18 0 0.0 0.0 0.00 0.10 0.00 53 1023.2
20260507154409 18 270 0.0 0.0 0.00 0.10 0.00 53 1023.2
20260507154309 18 270 0.0 0.0 0.00 0.10 0.00 53 1023.2
20260507154209 18 270 0.0 0.0 0.00 0.10 0.00 53 1023.0
20260507154109 18 270 0.0 0.0 0.00 0.10 0.00 53 1023.0
20260507154010 18 270 0.0 0.0 0.00 0.10 0.00 53 1023.0
20260507153909 18 315 0.0 0.0 0.00 0.10 0.00 53 1023.0
20260507153809 18 315 0.0 0.0 0.00 0.10 0.00 52 1023.0
20260507153709 18 292 0.0 0.0 0.00 0.10 0.00 53 1023.0
20260507153609 18 315 0.0 0.0 0.00 0.10 0.00 53 1023.0
20260507153509 18 337 0.0 0.0 0.00 0.10 0.00 53 1023.0
20260507153409 18 292 0.0 0.0 0.00 0.10 0.00 53 1023.0
20260507153309 18 315 0.0 0.0 0.00 0.10 0.00 53 1023.0
20260507153209 18 315 0.0 0.0 0.00 0.10 0.00 53 1023.0
20260507153109 18 337 8.0 0.0 0.00 0.10 0.00 53 1023.0
20260507153009 18 247 0.0 0.0 0.00 0.10 0.00 53 1023.0
20260507152909 18 270 0.0 0.0 0.00 0.10 0.00 53 1023.0
20260507152809 18 337 4.8 0.0 0.00 0.10 0.00 53 1023.0
20260507152709 18 337 0.0 0.0 0.00 0.10 0.00 53 1023.0
20260507152609 18 22 0.0 0.0 0.00 0.10 0.00 53 1023.0
20260507152509 18 22 0.0 0.0 0.00 0.10 0.00 53 1023.2
20260507152409 18 22 0.0 0.0 0.00 0.10 0.00 53 1023.2
20260507152309 18 315 0.0 0.0 0.00 0.10 0.00 53 1023.0
20260507152209 18 337 0.0 0.0 0.00 0.10 0.00 53 1023.2
20260507152109 18 337 0.0 0.0 0.00 0.10 0.00 53 1023.0
20260507152009 18 292 0.0 0.0 0.00 0.10 0.00 53 1023.2
20260507151909 18 270 0.0 0.0 0.00 0.10 0.00 53 1023.2
20260507151809 18 270 0.0 0.0 0.00 0.10 0.00 53 1023.0
20260507151709 18 337 0.0 0.0 0.00 0.10 0.00 53 1023.0
20260507151609 18 270 0.0 0.0 0.00 0.10 0.00 53 1023.0
20260507151509 18 247 0.0 0.0 0.00 0.10 0.00 53 1023.2
20260507151409 18 292 0.0 0.0 0.00 0.10 0.00 53 1023.2
20260507151309 18 337 4.8 0.0 0.00 0.10 0.00 53 1023.0
20260507151209 18 337 0.0 0.0 0.00 0.10 0.00 53 1023.0
20260507151109 18 337 0.0 0.0 0.00 0.10 0.00 53 1023.0
20260507151009 18 315 0.0 0.0 0.00 0.10 0.00 53 1023.2
20260507150909 18 337 0.0 0.0 0.00 0.10 0.00 53 1023.0
20260507150809 18 315 11.3 0.0 0.00 0.10 0.00 53 1023.0
20260507150709 18 337 0.0 0.0 0.00 0.10 0.00 53 1023.0
20260507150609 18 337 1.6 0.0 0.00 0.10 0.00 53 1023.2
20260507150509 18 337 0.0 0.0 0.00 0.10 0.00 54 1023.2
20260507150409 18 0 0.0 0.0 0.00 0.10 0.00 54 1023.0
20260507150309 18 337 0.0 0.0 0.00 0.10 0.00 54 1023.0
20260507150209 18 337 0.0 0.0 0.00 0.10 0.00 54 1023.0
20260507150109 18 0 0.0 0.0 0.00 0.10 0.00 54 1023.0
20260507150009 18 0 0.0 0.0 0.00 0.15 0.00 54 1023.0
20260507145909 18 337 0.0 0.0 0.00 0.15 0.00 54 1023.0
20260507145809 18 337 0.0 0.0 0.00 0.15 0.00 54 1023.0
20260507145709 18 270 0.0 0.0 0.00 0.15 0.00 54 1023.0
20260507145609 18 315 0.0 0.0 0.00 0.15 0.00 54 1023.0
20260507145509 18 270 0.0 0.0 0.00 0.15 0.00 54 1023.0
20260507145409 17 315 11.3 0.0 0.00 0.15 0.00 54 1023.0
20260507145309 17 292 0.0 0.0 0.00 0.15 0.00 54 1023.0
20260507145209 17 315 0.0 0.0 0.00 0.15 0.00 54 1023.0
20260507145109 17 315 1.6 0.0 0.00 0.15 0.00 55 1023.0
20260507145009 17 292 0.0 0.0 0.00 0.15 0.00 55 1023.0
20260507144909 17 315 0.0 0.0 0.00 0.15 0.00 55 1023.0
20260507144809 17 315 0.0 0.0 0.00 0.15 0.00 55 1023.0
20260507144709 17 337 0.0 0.0 0.00 0.15 0.00 55 1023.0
20260507144609 17 315 0.0 0.0 0.00 0.15 0.00 55 1023.0
20260507144509 17 315 3.2 0.0 0.00 0.15 0.00 55 1023.0
20260507144409 17 337 8.0 0.0 0.00 0.15 0.00 55 1023.0
20260507144309 17 315 3.2 0.0 0.00 0.15 0.00 55 1023.0
20260507144209 17 292 0.0 0.0 0.00 0.15 0.00 56 1023.0
20260507144109 17 315 0.0 0.0 0.00 0.15 0.00 56 1023.0
20260507144009 17 315 0.0 0.0 0.00 0.15 0.00 56 1023.2
20260507143909 17 315 0.0 0.0 0.00 0.15 0.00 56 1023.2
20260507143809 17 292 0.0 0.0 0.00 0.15 0.00 56 1023.2
20260507143709 17 292 0.0 0.0 0.00 0.15 0.00 56 1023.2
20260507143609 17 270 0.0 0.0 0.00 0.15 0.00 56 1023.2
20260507143509 17 315 0.0 0.0 0.00 0.15 0.00 56 1023.2
20260507143409 17 270 0.0 0.0 0.00 0.15 0.00 56 1023.2
20260507143309 17 315 0.0 0.0 0.00 0.15 0.00 56 1023.2
20260507143209 17 270 0.0 0.0 0.00 0.15 0.00 56 1023.0
20260507143109 17 292 0.0 0.0 0.00 0.15 0.00 56 1023.0
20260507143009 17 315 0.0 0.0 0.00 0.15 0.00 56 1023.2
20260507142909 17 270 0.0 0.0 0.00 0.15 0.00 56 1023.2
20260507142809 17 270 0.0 0.0 0.00 0.15 0.00 57 1023.2
20260507142709 17 315 0.0 0.0 0.00 0.15 0.00 57 1023.2
20260507142609 17 0 0.0 0.0 0.00 0.15 0.00 57 1023.0
20260507142509 17 337 3.2 0.0 0.00 0.15 0.00 57 1023.0
20260507142409 17 22 0.0 0.0 0.00 0.15 0.00 57 1023.0
20260507142309 17 45 0.0 0.0 0.00 0.15 0.00 57 1023.2
20260507142209 17 22 0.0 0.0 0.00 0.15 0.00 58 1023.2
20260507142109 17 337 0.0 0.0 0.00 0.15 0.00 58 1023.2
20260507142009 17 315 0.0 0.0 0.00 0.15 0.00 58 1023.2
20260507141909 17 292 0.0 0.0 0.00 0.15 0.00 58 1023.2
20260507141809 17 315 0.0 0.0 0.00 0.15 0.00 58 1023.2
20260507141709 17 292 0.0 0.0 0.00 0.15 0.00 58 1023.0
20260507141609 17 292 0.0 0.0 0.00 0.15 0.00 58 1023.0
20260507141509 17 270 0.0 0.0 0.00 0.15 0.00 58 1023.0
20260507141409 17 315 3.2 0.0 0.00 0.15 0.00 59 1023.0
20260507141309 17 292 14.5 0.0 0.00 0.15 0.00 59 1023.0
20260507141209 16 270 0.0 0.0 0.00 0.15 0.00 59 1023.2
20260507141109 16 270 0.0 0.0 0.00 0.15 0.00 59 1023.0
20260507141009 16 270 0.0 0.0 0.00 0.15 0.00 59 1023.0
20260507140909 16 270 0.0 0.0 0.00 0.15 0.00 59 1023.2
20260507140809 16 270 0.0 0.0 0.00 0.15 0.00 59 1023.2
20260507140710 16 270 0.0 0.0 0.00 0.15 0.00 59 1023.2
20260507140609 16 315 0.0 0.0 0.00 0.15 0.00 59 1023.2
20260507140509 16 270 0.0 0.0 0.00 0.15 0.00 59 1023.2
20260507140409 16 270 0.0 0.0 0.00 0.15 0.00 59 1023.2
20260507140309 16 315 3.2 0.0 0.00 0.15 0.00 59 1023.2
20260507140209 16 270 0.0 0.0 0.00 0.15 0.00 59 1023.2
20260507140109 16 315 3.2 0.0 0.00 0.15 0.00 59 1023.2
20260507140009 16 315 0.0 0.0 0.00 0.15 0.00 59 1023.2
20260507135909 16 315 0.0 0.0 0.00 0.36 0.00 59 1023.2
20260507135809 16 315 3.2 0.0 0.00 0.36 0.00 59 1023.2
20260507135709 16 315 3.2 0.0 0.00 0.36 0.00 59 1023.2
20260507135609 16 337 0.0 0.0 0.00 0.36 0.00 59 1023.2
20260507135509 16 315 11.3 0.0 0.00 0.36 0.00 59 1023.2
20260507135409 16 337 3.2 0.0 0.00 0.36 0.00 59 1023.2
20260507135309 16 315 16.1 0.0 0.00 0.36 0.00 59 1023.2
20260507135209 16 315 1.6 0.0 0.00 0.36 0.00 59 1023.2
20260507135109 16 315 0.0 0.0 0.00 0.36 0.00 59 1023.2
20260507135009 16 337 0.0 0.0 0.00 0.36 0.00 59 1023.4
20260507134909 16 337 6.4 0.0 0.00 0.36 0.00 59 1023.4
20260507134809 16 315 0.0 0.0 0.00 0.36 0.00 59 1023.4
20260507134709 16 337 0.0 0.0 0.00 0.36 0.00 59 1023.2
20260507134609 16 315 0.0 0.0 0.00 0.36 0.00 59 1023.5
20260507134509 16 270 0.0 0.0 0.00 0.36 0.00 59 1023.5
20260507134409 16 270 0.0 0.0 0.00 0.36 0.00 59 1023.4
20260507134309 16 315 0.0 0.0 0.00 0.36 0.00 59 1023.4
20260507134209 16 22 0.0 0.0 0.00 0.36 0.00 59 1023.4
20260507134109 16 22 0.0 0.0 0.00 0.36 0.00 59 1023.4
20260507134009 16 45 0.0 0.0 0.00 0.36 0.00 59 1023.4
20260507133909 16 337 0.0 0.0 0.00 0.36 0.00 59 1023.4
20260507133809 16 22 0.0 0.0 0.00 0.36 0.00 59 1023.4
20260507133709 16 45 0.0 0.0 0.00 0.36 0.00 59 1023.5
20260507133609 16 292 294.5 0.0 0.00 0.36 0.00 59 1023.5
20260507133509 16 292 0.0 0.0 0.00 0.36 0.00 59 1023.5
20260507133409 16 315 0.0 0.0 0.00 0.36 0.00 59 1023.5
20260507133309 16 337 0.0 0.0 0.00 0.36 0.00 59 1023.5
20260507133209 16 315 9.7 0.0 0.00 0.36 0.00 59 1023.7
20260507133109 16 315 16.1 0.0 0.00 0.36 0.00 59 1023.5
20260507133009 16 315 4.8 0.0 0.00 0.36 0.00 59 1023.7
20260507132909 16 315 4.8 0.0 0.00 0.36 0.00 59 1023.7
20260507132809 16 315 12.9 0.0 0.00 0.36 0.00 59 1023.7
20260507132710 16 337 6.4 0.0 0.00 0.36 0.00 59 1023.7
20260507132609 16 315 4.8 0.0 0.00 0.36 0.00 59 1023.5
20260507132509 16 315 0.0 0.0 0.00 0.36 0.00 59 1023.7
20260507132409 16 292 0.0 0.0 0.00 0.36 0.00 59 1023.5
20260507132309 16 292 0.0 0.0 0.00 0.36 0.00 59 1023.7
20260507132209 16 270 0.0 0.0 0.00 0.36 0.00 59 1023.7
20260507132109 16 292 14.5 0.0 0.00 0.36 0.00 59 1023.7
20260507132009 16 315 17.7 0.0 0.00 0.36 0.00 59 1023.5
20260507131909 16 337 0.0 0.0 0.00 0.36 0.00 59 1023.5
20260507131809 16 337 0.0 0.0 0.00 0.36 0.00 59 1023.7
20260507131709 16 0 3.2 0.0 0.00 0.36 0.00 60 1023.7
20260507131609 16 0 8.0 0.0 0.00 0.36 0.00 60 1023.7
20260507131509 16 315 0.0 0.0 0.00 0.36 0.00 60 1023.7
20260507131409 16 292 0.0 0.0 0.00 0.36 0.00 60 1023.7
20260507131309 16 315 8.0 0.0 0.00 0.36 0.00 60 1023.5
20260507131209 16 315 9.7 0.0 0.00 0.36 0.00 60 1023.7
20260507131109 16 315 8.0 0.0 0.00 0.36 0.00 60 1023.5
20260507131009 16 337 8.0 0.0 0.00 0.36 0.00 61 1023.5
20260507130909 16 315 24.1 0.0 0.00 0.36 0.00 61 1023.5
20260507130809 16 270 0.0 0.0 0.00 0.36 0.00 61 1023.5
20260507130709 16 292 0.0 0.0 0.00 0.36 0.00 61 1023.5
20260507130609 16 315 0.0 0.0 0.00 0.36 0.00 61 1023.7
20260507130509 16 315 0.0 0.0 0.00 0.36 0.00 61 1023.7
20260507130409 16 315 16.1 0.0 0.00 0.36 0.00 61 1023.5
20260507130309 16 270 0.0 0.0 0.00 0.36 0.00 61 1023.7
20260507130209 16 315 0.0 0.0 0.00 0.36 0.00 61 1023.5
20260507130109 16 315 6.4 0.0 0.00 0.36 0.00 61 1023.7
20260507130009 16 270 0.0 0.0 0.00 0.36 0.00 61 1023.7
20260507125909 16 315 16.1 0.0 0.00 0.36 0.00 61 1023.5
20260507125809 16 337 9.7 0.0 0.00 0.36 0.00 61 1023.7
20260507125709 16 337 20.9 0.0 0.00 0.36 0.00 61 1023.7
20260507125609 16 337 19.3 0.0 0.00 0.36 0.00 61 1023.5
20260507125509 15 22 12.9 0.0 0.00 0.36 0.00 61 1023.7
20260507125409 15 315 16.1 0.0 0.00 0.36 0.00 61 1023.7
20260507125309 15 337 24.1 0.0 0.00 0.36 0.00 61 1023.7
20260507125209 15 315 17.7 0.0 0.00 0.36 0.00 60 1023.7
20260507125109 15 337 17.7 0.0 0.00 0.36 0.00 60 1023.7
20260507125011 15 337 14.5 0.0 0.00 0.36 0.00 60 1023.7
20260507124909 15 315 16.1 0.0 0.00 0.36 0.00 60 1023.7
20260507124809 15 315 19.3 0.0 0.00 0.36 0.00 60 1023.7
20260507124709 15 315 17.7 0.0 0.00 0.36 0.00 60 1023.7
20260507124609 15 315 0.0 0.0 0.00 0.36 0.00 60 1023.7
20260507124509 15 315 14.5 0.0 0.00 0.36 0.00 60 1023.7
20260507124409 15 337 24.1 0.0 0.00 0.36 0.00 60 1023.7
20260507124309 15 315 19.3 0.0 0.00 0.36 0.00 60 1023.7
20260507124209 15 315 17.7 0.0 0.00 0.36 0.00 60 1023.7
20260507124109 15 337 9.7 0.0 0.00 0.36 0.00 60 1023.5
20260507124009 16 315 25.7 0.0 0.00 0.36 0.00 60 1023.5
20260507123909 16 337 11.3 0.0 0.00 0.36 0.00 60 1023.5
20260507123809 16 337 20.9 0.0 0.00 0.36 0.00 60 1023.5
20260507123709 16 292 0.0 0.0 0.00 0.36 0.00 60 1023.5
20260507123609 16 315 17.7 0.0 0.00 0.36 0.00 60 1023.5
20260507123509 16 270 8.0 0.0 0.00 0.36 0.00 60 1023.4
20260507123409 16 315 8.0 0.0 0.00 0.36 0.00 59 1023.4
20260507123309 16 337 22.5 0.0 0.00 0.36 0.00 59 1023.4
20260507123209 16 315 6.4 0.0 0.00 0.36 0.00 58 1023.4
20260507123109 16 315 6.4 0.0 0.00 0.36 0.00 58 1023.4
20260507123009 16 0 0.0 0.0 0.00 0.36 0.00 58 1023.4
20260507122909 16 315 16.1 0.0 0.00 0.36 0.00 58 1023.4
20260507122809 16 315 25.7 0.0 0.00 0.36 0.00 57 1023.4
20260507122709 16 315 6.4 0.0 0.00 0.36 0.00 57 1023.4
20260507122609 16 315 24.1 0.0 0.00 0.36 0.00 57 1023.5
20260507122509 16 337 25.7 0.0 0.00 0.36 0.00 57 1023.5
20260507122409 16 337 19.3 0.0 0.00 0.36 0.00 56 1023.4
20260507122309 17 337 19.3 0.0 0.00 0.36 0.00 56 1023.5
20260507122209 17 315 9.7 0.0 0.00 0.36 0.00 56 1023.5
20260507122109 17 315 9.7 0.0 0.00 0.36 0.00 56 1023.4
20260507122009 17 315 22.5 0.0 0.00 0.36 0.00 55 1023.5
20260507121909 17 315 22.5 0.0 0.00 0.36 0.00 55 1023.5
20260507121809 17 315 0.0 0.0 0.00 0.36 0.00 54 1023.5
20260507121709 17 315 0.0 0.0 0.00 0.36 0.00 54 1023.4
20260507121609 18 315 12.9 0.0 0.00 0.36 0.00 53 1023.4
20260507121509 18 337 14.5 0.0 0.00 0.36 0.00 53 1023.4
20260507121409 18 315 12.9 0.0 0.00 0.36 0.00 53 1023.4
20260507121309 19 315 3.2 0.0 0.00 0.36 0.00 52 1023.4
20260507121209 19 292 16.1 0.0 0.00 0.36 0.00 52 1023.4
20260507121109 20 292 14.5 0.0 0.00 0.36 0.00 51 1023.4
20260507121009 20 292 0.0 0.0 0.00 0.36 0.00 51 1023.4
20260507120909 20 270 4.8 0.0 0.00 0.36 0.00 51 1023.4
20260507120809 20 292 0.0 0.0 0.00 0.36 0.00 50 1023.4
20260507120709 20 315 6.4 0.0 0.00 0.36 0.00 51 1023.4
20260507120609 21 292 9.7 0.0 0.00 0.36 0.00 50 1023.2
20260507120509 21 292 0.0 0.0 0.00 0.36 0.00 50 1023.2
20260507120409 21 270 0.0 0.0 0.00 0.36 0.00 50 1023.4
20260507120309 21 270 16.1 0.0 0.00 0.36 0.00 50 1023.2
20260507120209 21 315 9.7 0.0 0.00 0.36 0.00 51 1023.4
20260507120109 21 225 4.8 0.0 0.00 0.36 0.00 51 1023.2
20260507120009 21 225 8.0 0.0 0.00 0.36 0.00 51 1023.2
20260507115909 21 225 4.8 0.0 0.00 0.36 0.00 51 1023.2
20260507115809 21 225 22.5 0.0 0.00 0.36 0.00 51 1023.2
20260507115709 21 247 0.0 0.0 0.00 0.36 0.00 51 1023.2
20260507115609 22 247 0.0 0.0 0.00 0.36 0.00 51 1023.2
20260507115509 22 247 0.0 0.0 0.00 0.36 0.00 51 1023.2
20260507115409 22 247 0.0 0.0 0.00 0.36 0.00 51 1023.2
20260507115309 21 180 0.0 0.0 0.00 0.36 0.00 51 1023.2
20260507115209 21 180 9.7 0.0 0.00 0.36 0.00 51 1023.2
20260507115109 21 202 9.7 0.0 0.00 0.36 0.00 51 1023.2
20260507115009 21 180 0.0 0.0 0.00 0.36 0.00 51 1023.2
20260507114909 21 180 11.3 0.0 0.00 0.36 0.00 51 1023.2
20260507114809 21 180 0.0 0.0 0.00 0.36 0.00 51 1023.4
20260507114709 21 180 0.0 0.0 0.00 0.36 0.00 52 1023.4
20260507114609 21 180 0.0 0.0 0.00 0.36 0.00 52 1023.4
20260507114509 21 202 11.3 0.0 0.00 0.36 0.00 52 1023.4
20260507114409 21 225 12.9 0.0 0.00 0.36 0.00 52 1023.4
20260507114309 21 225 6.4 0.0 0.00 0.36 0.00 52 1023.2
20260507114209 21 202 6.4 0.0 0.00 0.36 0.00 52 1023.4
20260507114109 21 202 0.0 0.0 0.00 0.36 0.00 52 1023.4
20260507114009 21 202 0.0 0.0 0.00 0.36 0.00 52 1023.4
20260507113909 21 202 8.0 0.0 0.00 0.36 0.00 52 1023.5
20260507113809 21 180 0.0 0.0 0.00 0.36 0.00 52 1023.4
20260507113709 21 202 0.0 0.0 0.00 0.36 0.00 52 1023.4
20260507113609 21 202 14.5 0.0 0.00 0.36 0.00 53 1023.4
20260507113509 21 180 0.0 0.0 0.00 0.36 0.00 53 1023.5
20260507113409 21 202 3.2 0.0 0.00 0.36 0.00 53 1023.4
20260507113309 21 225 0.0 0.0 0.00 0.36 0.00 53 1023.4
20260507113209 20 225 11.3 0.0 0.00 0.36 0.00 53 1023.5
20260507113109 20 225 6.4 0.0 0.00 0.36 0.00 53 1023.4
20260507113009 20 247 0.0 0.0 0.00 0.36 0.00 53 1023.4
20260507112909 20 247 0.0 0.0 0.00 0.36 0.00 53 1023.4
20260507112809 20 247 0.0 0.0 0.00 0.36 0.00 53 1023.5
20260507112709 20 247 0.0 0.0 0.00 0.36 0.00 53 1023.5
20260507112609 20 202 14.5 0.0 0.00 0.36 0.00 53 1023.5
20260507112509 20 180 0.0 0.0 0.00 0.36 0.00 53 1023.5
20260507112409 20 247 0.0 0.0 0.00 0.36 0.00 54 1023.5
20260507112309 20 202 0.0 0.0 0.00 0.36 0.00 54 1023.4
20260507112209 20 225 17.7 0.0 0.00 0.36 0.00 54 1023.4
20260507112109 20 202 19.3 0.0 0.00 0.36 0.00 53 1023.4
20260507112009 20 202 12.9 0.0 0.00 0.36 0.00 54 1023.4
20260507111909 20 202 4.8 0.0 0.00 0.36 0.00 54 1023.4
20260507111809 20 180 0.0 0.0 0.00 0.36 0.00 54 1023.4
20260507111709 20 157 3.2 0.0 0.00 0.36 0.00 54 1023.4
20260507111609 20 225 9.7 0.0 0.00 0.36 0.00 54 1023.5
20260507111509 20 180 0.0 0.0 0.00 0.36 0.00 54 1023.5
20260507111409 20 157 1.6 0.0 0.00 0.36 0.00 54 1023.4
20260507111309 20 180 0.0 0.0 0.00 0.36 0.00 54 1023.4
20260507111209 20 202 11.3 0.0 0.00 0.36 0.00 54 1023.5
20260507111109 20 180 14.5 0.0 0.00 0.36 0.00 54 1023.7
20260507111009 20 180 19.3 0.0 0.00 0.36 0.00 54 1023.5
20260507110909 20 292 294.5 0.0 0.00 0.36 0.00 54 1023.5
20260507110809 20 225 17.7 0.0 0.00 0.36 0.00 54 1023.4
20260507110709 20 202 9.7 0.0 0.00 0.36 0.00 54 1023.5
20260507110609 19 202 19.3 0.0 0.00 0.36 0.00 54 1023.5
20260507110509 19 180 0.0 0.0 0.00 0.36 0.00 54 1023.5
20260507110409 19 225 0.0 0.0 0.00 0.36 0.00 54 1023.5
20260507110309 19 202 0.0 0.0 0.00 0.36 0.00 54 1023.5
20260507110209 19 180 9.7 0.0 0.00 0.36 0.00 54 1023.5
20260507110109 19 202 6.4 0.0 0.00 0.36 0.00 54 1023.4
20260507110009 20 202 12.9 0.0 0.00 0.36 0.00 54 1023.5
20260507105909 20 202 27.4 0.0 0.00 0.36 0.00 54 1023.5
20260507105809 20 157 6.4 0.0 0.00 0.36 0.00 54 1023.5
20260507105709 20 202 3.2 0.0 0.00 0.36 0.00 55 1023.5
20260507105609 20 202 22.5 0.0 0.00 0.36 0.00 55 1023.5
20260507105509 20 202 14.5 0.0 0.00 0.36 0.00 55 1023.5
20260507105409 20 202 12.9 0.0 0.00 0.36 0.00 55 1023.5
20260507105309 20 225 12.9 0.0 0.00 0.36 0.00 55 1023.5
20260507105209 20 180 14.5 0.0 0.00 0.36 0.00 55 1023.5
20260507105109 20 180 19.3 0.0 0.00 0.36 0.00 55 1023.5
20260507105009 20 225 14.5 0.0 0.00 0.36 0.00 55 1023.5
20260507104909 20 157 11.3 0.0 0.00 0.36 0.00 55 1023.5
20260507104809 19 202 11.3 0.0 0.00 0.36 0.00 55 1023.5
20260507104709 19 180 8.0 0.0 0.00 0.36 0.00 55 1023.5
20260507104609 19 180 3.2 0.0 0.00 0.36 0.00 55 1023.5
20260507104509 19 157 20.9 0.0 0.00 0.36 0.00 56 1023.5
20260507104409 19 180 0.0 0.0 0.00 0.36 0.00 55 1023.5
20260507104309 19 157 0.0 0.0 0.00 0.36 0.00 55 1023.5
20260507104209 19 180 4.8 0.0 0.00 0.36 0.00 55 1023.5
20260507104109 19 180 0.0 0.0 0.00 0.36 0.00 55 1023.5
20260507104009 19 202 17.7 0.0 0.00 0.36 0.00 55 1023.5
20260507103909 19 202 16.1 0.0 0.00 0.36 0.00 55 1023.5
20260507103809 19 180 16.1 0.0 0.00 0.36 0.00 55 1023.5
20260507103709 19 202 20.9 0.0 0.00 0.36 0.00 55 1023.5
20260507103609 19 157 14.5 0.0 0.00 0.36 0.00 55 1023.5
20260507103509 19 180 0.0 0.0 0.00 0.36 0.00 55 1023.5
20260507103409 19 202 1.6 0.0 0.00 0.36 0.00 55 1023.5
20260507103309 20 180 16.1 0.0 0.00 0.36 0.00 55 1023.5
20260507103209 20 202 9.7 0.0 0.00 0.36 0.00 55 1023.5
20260507103109 20 202 20.9 0.0 0.00 0.36 0.00 55 1023.5
20260507103009 20 180 6.4 0.0 0.00 0.36 0.00 55 1023.5
20260507102909 20 202 20.9 0.0 0.00 0.36 0.00 55 1023.5
20260507102809 20 180 3.2 0.0 0.00 0.36 0.00 55 1023.5
20260507102709 20 180 0.0 0.0 0.00 0.36 0.00 55 1023.5
20260507102609 20 180 16.1 0.0 0.00 0.36 0.00 55 1023.5
20260507102509 20 180 3.2 0.0 0.00 0.36 0.00 55 1023.4
20260507102409 20 202 20.9 0.0 0.00 0.36 0.00 56 1023.5
20260507102309 20 180 4.8 0.0 0.00 0.36 0.00 55 1023.5
20260507102209 20 225 9.7 0.0 0.00 0.36 0.00 56 1023.5
20260507102109 20 180 8.0 0.0 0.00 0.36 0.00 55 1023.5
20260507102009 20 180 20.9 0.0 0.00 0.36 0.00 55 1023.5
20260507101909 20 202 16.1 0.0 0.00 0.36 0.00 56 1023.5
20260507101809 20 157 16.1 0.0 0.00 0.36 0.00 56 1023.5
20260507101709 20 180 9.7 0.0 0.00 0.36 0.00 56 1023.5
20260507101609 20 157 22.5 0.0 0.00 0.36 0.00 56 1023.5
20260507101509 20 180 16.1 0.0 0.00 0.36 0.00 56 1023.5
20260507101409 20 157 16.1 0.0 0.00 0.36 0.00 57 1023.5
20260507101309 20 180 17.7 0.0 0.00 0.36 0.00 57 1023.5
20260507101209 20 225 0.0 0.0 0.00 0.36 0.00 57 1023.5
20260507101109 20 247 16.1 0.0 0.00 0.36 0.00 57 1023.5
20260507101009 20 202 29.0 0.0 0.00 0.36 0.00 57 1023.5
20260507100909 20 225 22.5 0.0 0.00 0.36 0.00 57 1023.5
20260507100809 20 225 19.3 0.0 0.00 0.36 0.00 57 1023.5
20260507100709 20 180 0.0 0.0 0.00 0.36 0.00 58 1023.5
20260507100609 20 157 12.9 0.0 0.00 0.36 0.00 58 1023.5
20260507100509 20 202 17.7 0.0 0.00 0.36 0.00 58 1023.5
20260507100409 20 157 4.8 0.0 0.00 0.36 0.00 58 1023.5
20260507100309 19 180 0.0 0.0 0.00 0.36 0.00 58 1023.5
20260507100209 19 180 0.0 0.0 0.00 0.36 0.00 58 1023.5
20260507100109 19 202 16.1 0.0 0.00 0.36 0.00 58 1023.4
20260507100009 19 202 20.9 0.0 0.00 0.36 0.00 58 1023.5
20260507095909 19 247 17.7 0.0 0.00 0.36 0.00 58 1023.5
20260507095809 19 202 29.0 0.0 0.00 0.36 0.00 58 1023.5
20260507095709 19 225 16.1 0.0 0.00 0.36 0.00 59 1023.5
20260507095609 19 225 8.0 0.0 0.00 0.36 0.00 58 1023.5
20260507095509 18 180 9.7 0.0 0.00 0.36 0.00 59 1023.5
20260507095409 19 180 9.7 0.0 0.00 0.36 0.00 59 1023.7
20260507095308 19 225 17.7 0.0 0.00 0.36 0.00 59 1023.5
20260507095209 19 225 16.1 0.0 0.00 0.36 0.00 59 1023.7
20260507095109 19 202 0.0 0.0 0.00 0.36 0.00 59 1023.7
20260507095009 19 225 9.7 0.0 0.00 0.36 0.00 59 1023.7
20260507094909 19 225 16.1 0.0 0.00 0.36 0.00 59 1023.5
20260507094809 19 202 27.4 0.0 0.00 0.36 0.00 59 1023.7
20260507094709 19 202 12.9 0.0 0.00 0.36 0.00 59 1023.7
20260507094609 19 225 29.0 0.0 0.00 0.36 0.00 59 1023.5
20260507094508 20 202 9.7 0.0 0.00 0.36 0.00 59 1023.7
20260507094408 20 202 0.0 0.0 0.00 0.36 0.00 59 1023.5
20260507094308 20 180 0.0 0.0 0.00 0.36 0.00 59 1023.5
20260507094208 20 202 17.7 0.0 0.00 0.36 0.00 59 1023.5
20260507094108 20 180 14.5 0.0 0.00 0.36 0.00 59 1023.5
20260507094009 20 202 8.0 0.0 0.00 0.36 0.00 59 1023.5
20260507093908 20 202 3.2 0.0 0.00 0.36 0.00 59 1023.5
20260507093809 20 180 0.0 0.0 0.00 0.36 0.00 60 1023.7
20260507093708 20 157 4.8 0.0 0.00 0.36 0.00 60 1023.5
20260507093608 20 157 14.5 0.0 0.00 0.36 0.00 60 1023.5
20260507093508 20 180 19.3 0.0 0.00 0.36 0.00 60 1023.5
20260507093408 20 157 14.5 0.0 0.00 0.36 0.00 60 1023.5
20260507093308 20 180 6.4 0.0 0.00 0.36 0.00 60 1023.5
20260507093209 20 157 0.0 0.0 0.00 0.36 0.00 60 1023.5
20260507093108 20 180 0.0 0.0 0.00 0.36 0.00 60 1023.5
20260507093008 20 180 11.3 0.0 0.00 0.36 0.00 60 1023.5
20260507092908 20 180 17.7 0.0 0.00 0.36 0.00 60 1023.4
20260507092808 20 157 3.2 0.0 0.00 0.36 0.00 60 1023.4
20260507092708 20 135 9.7 0.0 0.00 0.36 0.00 60 1023.4
20260507092608 20 180 14.5 0.0 0.00 0.36 0.00 60 1023.4
20260507092508 20 180 14.5 0.0 0.00 0.36 0.00 60 1023.4
20260507092408 20 157 6.4 0.0 0.00 0.36 0.00 60 1023.4
20260507092308 20 180 14.5 0.0 0.00 0.36 0.00 60 1023.4
20260507092208 20 202 8.0 0.0 0.00 0.36 0.00 60 1023.2
20260507092108 20 180 14.5 0.0 0.00 0.36 0.00 60 1023.4
20260507092008 20 135 9.7 0.0 0.00 0.36 0.00 60 1023.4
20260507091909 20 180 16.1 0.0 0.00 0.36 0.00 60 1023.2
20260507091808 20 157 6.4 0.0 0.00 0.36 0.00 60 1023.4
20260507091708 20 180 19.3 0.0 0.00 0.36 0.00 60 1023.2
20260507091608 20 180 9.7 0.0 0.00 0.36 0.00 60 1023.4
20260507091508 20 180 8.0 0.0 0.00 0.36 0.00 61 1023.4
20260507091408 20 180 16.1 0.0 0.00 0.36 0.00 61 1023.4
20260507091308 20 202 16.1 0.0 0.00 0.36 0.00 61 1023.4
20260507091208 20 225 14.5 0.0 0.00 0.36 0.00 61 1023.4
20260507091108 20 225 24.1 0.0 0.00 0.36 0.00 61 1023.2
20260507091008 20 202 30.6 0.0 0.00 0.36 0.00 62 1023.2
20260507090908 20 180 16.1 0.0 0.00 0.36 0.00 62 1023.2
20260507090809 20 202 19.3 0.0 0.00 0.36 0.00 62 1023.2
20260507090708 20 180 19.3 0.0 0.00 0.36 0.00 63 1023.4
20260507090608 20 202 6.4 0.0 0.00 0.36 0.00 63 1023.4
20260507090508 20 180 1.6 0.0 0.00 0.36 0.00 63 1023.2
20260507090408 20 202 11.3 0.0 0.00 0.36 0.00 63 1023.2
20260507090308 20 180 0.0 0.0 0.00 0.36 0.00 64 1023.4
20260507090208 20 202 25.7 0.0 0.00 0.36 0.00 64 1023.2
20260507090108 20 225 11.3 0.0 0.00 0.36 0.00 64 1023.2
20260507090008 20 180 0.0 0.0 0.00 0.36 0.00 64 1023.2
20260507085908 20 180 0.0 0.0 0.00 0.36 0.00 64 1023.4
20260507085808 20 225 8.0 0.0 0.00 0.36 0.00 65 1023.4
20260507085708 20 180 0.0 0.0 0.00 0.36 0.00 64 1023.2
20260507085608 20 202 9.7 0.0 0.00 0.36 0.00 65 1023.4
20260507085508 20 180 0.0 0.0 0.00 0.36 0.00 65 1023.2
20260507085408 19 180 3.2 0.0 0.00 0.36 0.00 65 1023.2
20260507085308 19 180 8.0 0.0 0.00 0.36 0.00 65 1023.2
20260507085208 19 180 14.5 0.0 0.00 0.36 0.00 65 1023.4
20260507085108 19 180 0.0 0.0 0.00 0.36 0.00 65 1023.4
20260507085008 18 180 0.0 0.0 0.00 0.36 0.00 66 1023.4
20260507084908 18 202 4.8 0.0 0.00 0.36 0.00 66 1023.4
20260507084808 18 202 0.0 0.0 0.00 0.36 0.00 66 1023.4
20260507084708 18 225 14.5 0.0 0.00 0.36 0.00 66 1023.4
20260507084608 18 225 24.1 0.0 0.00 0.36 0.00 66 1023.4
20260507084508 18 202 25.7 0.0 0.00 0.36 0.00 66 1023.4
20260507084408 18 180 3.2 0.0 0.00 0.36 0.00 66 1023.5
20260507084308 18 157 11.3 0.0 0.00 0.36 0.00 66 1023.4
20260507084208 18 157 9.7 0.0 0.00 0.36 0.00 66 1023.0
20260507084108 18 180 0.0 0.0 0.00 0.36 0.00 66 1023.2
20260507084008 18 157 8.0 0.0 0.00 0.36 0.00 66 1023.4
20260507083908 18 157 4.8 0.0 0.00 0.36 0.00 66 1023.2
20260507083808 18 157 0.0 0.0 0.00 0.36 0.00 66 1023.2
20260507083708 18 180 9.7 0.0 0.00 0.36 0.00 66 1023.2
20260507083608 18 180 9.7 0.0 0.00 0.36 0.00 67 1023.2
20260507083508 18 180 0.0 0.0 0.00 0.36 0.00 67 1023.2
20260507083408 18 180 14.5 0.0 0.00 0.36 0.00 67 1023.2
20260507083308 18 180 17.7 0.0 0.00 0.36 0.00 67 1023.2
20260507083208 18 202 12.9 0.0 0.00 0.36 0.00 67 1023.2
20260507083108 18 202 17.7 0.0 0.00 0.36 0.00 67 1023.2
20260507083008 18 225 4.8 0.0 0.00 0.36 0.00 67 1023.2
20260507082908 18 180 16.1 0.0 0.00 0.36 0.00 67 1023.2
20260507082808 18 202 0.0 0.0 0.00 0.36 0.00 68 1023.0
20260507082708 18 225 20.9 0.0 0.00 0.36 0.00 68 1023.2
20260507082608 18 225 12.9 0.0 0.00 0.36 0.00 68 1023.2
20260507082508 18 180 0.0 0.0 0.00 0.36 0.00 68 1023.2
20260507082408 18 180 8.0 0.0 0.00 0.36 0.00 68 1023.2
20260507082308 18 180 12.9 0.0 0.00 0.36 0.00 68 1023.2
20260507082208 18 202 22.5 0.0 0.00 0.36 0.00 69 1023.2
20260507082108 18 225 14.5 0.0 0.00 0.36 0.00 69 1023.0
20260507082008 18 225 22.5 0.0 0.00 0.36 0.00 69 1023.2
20260507081908 18 202 3.2 0.0 0.00 0.36 0.00 69 1023.2
20260507081808 18 180 0.0 0.0 0.00 0.36 0.00 69 1023.2
20260507081708 18 157 0.0 0.0 0.00 0.36 0.00 70 1023.2
20260507081608 18 202 16.1 0.0 0.00 0.36 0.00 70 1023.2
20260507081508 18 157 6.4 0.0 0.00 0.36 0.00 70 1023.2
20260507081408 18 157 8.0 0.0 0.00 0.36 0.00 70 1023.2
20260507081308 17 180 14.5 0.0 0.00 0.36 0.00 70 1023.2
20260507081208 17 180 14.5 0.0 0.00 0.36 0.00 70 1023.2
20260507081108 17 157 11.3 0.0 0.00 0.36 0.00 70 1023.2
20260507081008 17 180 6.4 0.0 0.00 0.36 0.00 70 1023.2
20260507080908 17 157 4.8 0.0 0.00 0.36 0.00 70 1023.2
20260507080808 17 157 1.6 0.0 0.00 0.36 0.00 71 1023.2
20260507080708 17 180 4.8 0.0 0.00 0.36 0.00 71 1023.2
20260507080608 17 180 14.5 0.0 0.00 0.36 0.00 71 1023.2
20260507080508 17 180 4.8 0.0 0.00 0.36 0.00 71 1023.2
20260507080408 17 180 14.5 0.0 0.00 0.36 0.00 71 1023.2
20260507080308 17 180 14.5 0.0 0.00 0.36 0.00 71 1023.0
20260507080208 17 157 0.0 0.0 0.00 0.36 0.00 71 1023.0
20260507080108 17 180 6.4 0.0 0.00 0.36 0.00 72 1023.2
20260507080008 17 180 0.0 0.0 0.00 0.36 0.00 72 1023.2
20260507075908 17 157 0.0 0.0 0.00 0.36 0.00 72 1023.2
20260507075808 17 202 0.0 0.0 0.00 0.36 0.00 72 1023.2
20260507075708 17 180 0.0 0.0 0.00 0.36 0.00 72 1023.2
20260507075608 17 202 0.0 0.0 0.00 0.36 0.00 73 1023.2
20260507075508 17 180 3.2 0.0 0.00 0.36 0.00 73 1023.2
20260507075408 17 202 0.0 0.0 0.00 0.36 0.00 73 1023.2
20260507075308 17 202 16.1 0.0 0.00 0.36 0.00 73 1023.0
20260507075208 17 202 0.0 0.0 0.00 0.36 0.00 73 1023.0
20260507075108 17 202 11.3 0.0 0.00 0.36 0.00 73 1023.2
20260507075008 17 180 0.0 0.0 0.00 0.36 0.00 73 1023.2
20260507074908 17 180 11.3 0.0 0.00 0.36 0.00 74 1023.0
20260507074808 17 180 11.3 0.0 0.00 0.36 0.00 74 1023.0
20260507074708 16 180 4.8 0.0 0.00 0.36 0.00 74 1023.2
20260507074608 16 202 6.4 0.0 0.00 0.36 0.00 74 1023.0
20260507074508 16 180 0.0 0.0 0.00 0.36 0.00 74 1023.0
20260507074408 16 180 17.7 0.0 0.00 0.36 0.00 74 1023.2
20260507074308 16 180 17.7 0.0 0.00 0.36 0.00 74 1023.0
20260507074208 16 180 12.9 0.0 0.00 0.36 0.00 74 1023.2
20260507074108 15 180 0.0 0.0 0.00 0.36 0.00 75 1023.2
20260507074008 15 180 0.0 0.0 0.00 0.36 0.00 75 1023.0
20260507073908 15 180 3.2 0.0 0.00 0.36 0.00 75 1023.2
20260507073808 15 180 16.1 0.0 0.00 0.36 0.00 75 1023.2
20260507073708 15 202 17.7 0.0 0.00 0.36 0.00 75 1023.0
20260507073608 15 180 1.6 0.0 0.00 0.36 0.00 75 1023.0
20260507073508 15 180 9.7 0.0 0.00 0.36 0.00 75 1023.2
20260507073408 15 180 0.0 0.0 0.00 0.36 0.00 75 1023.2
20260507073308 15 180 0.0 0.0 0.00 0.36 0.00 75 1023.0
20260507073208 14 180 8.0 0.0 0.00 0.36 0.00 75 1023.2
20260507073108 14 180 8.0 0.0 0.00 0.36 0.00 75 1023.2
20260507073008 14 202 9.7 0.0 0.00 0.36 0.00 75 1023.2
20260507072908 14 180 9.7 0.0 0.00 0.36 0.00 75 1023.2
20260507072808 14 157 0.0 0.0 0.00 0.36 0.00 75 1023.2
20260507072708 14 180 0.0 0.0 0.00 0.36 0.00 75 1023.2
20260507072608 14 202 0.0 0.0 0.00 0.36 0.00 75 1023.0
20260507072509 14 180 0.0 0.0 0.00 0.36 0.00 75 1023.0
20260507072408 14 202 4.8 0.0 0.00 0.36 0.00 76 1023.0
20260507072308 14 202 16.1 0.0 0.00 0.36 0.00 76 1023.2
20260507072208 14 180 3.2 0.0 0.00 0.36 0.00 76 1023.0
20260507072108 14 180 0.0 0.0 0.00 0.36 0.00 76 1023.0
20260507072008 14 180 0.0 0.0 0.00 0.36 0.00 76 1023.0
20260507071908 14 202 4.8 0.0 0.00 0.36 0.00 76 1023.0
20260507071808 13 202 4.8 0.0 0.00 0.36 0.00 76 1023.0
20260507071708 13 157 12.9 0.0 0.00 0.36 0.00 76 1023.0
20260507071608 13 157 0.0 0.0 0.00 0.36 0.00 76 1023.0
20260507071508 13 180 9.7 0.0 0.00 0.36 0.00 76 1023.0
20260507071408 13 202 4.8 0.0 0.00 0.36 0.00 76 1022.9
20260507071308 13 202 14.5 0.0 0.00 0.36 0.00 76 1023.0
20260507071208 13 180 16.1 0.0 0.00 0.36 0.00 76 1023.0
20260507071108 13 180 0.0 0.0 0.00 0.36 0.00 76 1023.0
20260507071008 13 202 6.4 0.0 0.00 0.36 0.00 76 1022.9
20260507070908 13 202 0.0 0.0 0.00 0.36 0.00 76 1023.0
20260507070808 13 202 1.6 0.0 0.00 0.36 0.00 76 1023.0
20260507070708 13 202 0.0 0.0 0.00 0.36 0.00 76 1022.9
20260507070608 13 225 9.7 0.0 0.00 0.36 0.00 76 1022.9
20260507070508 13 202 4.8 0.0 0.00 0.36 0.00 76 1022.9
20260507070408 13 180 8.0 0.0 0.00 0.36 0.00 76 1022.9
20260507070308 13 157 3.2 0.0 0.00 0.36 0.00 76 1022.9
20260507070208 13 180 3.2 0.0 0.00 0.36 0.00 77 1022.9
20260507070108 13 157 0.0 0.0 0.00 0.36 0.00 77 1023.0
20260507070011 13 202 17.7 0.0 0.00 0.36 0.00 77 1022.9
20260507065908 13 180 0.0 0.0 0.00 0.36 0.00 77 1022.9
20260507065808 13 180 0.0 0.0 0.00 0.36 0.00 77 1023.0
20260507065708 13 180 0.0 0.0 0.00 0.36 0.00 77 1022.7
20260507065608 13 202 0.0 0.0 0.00 0.36 0.00 77 1022.7
20260507065508 13 202 294.5 0.0 0.00 0.36 0.00 77 1022.9
20260507065408 13 180 4.8 0.0 0.00 0.36 0.00 77 1023.0
20260507065308 13 180 1.6 0.0 0.00 0.36 0.00 77 1022.9
20260507065208 13 180 16.1 0.0 0.00 0.36 0.00 77 1022.9
20260507065108 13 180 4.8 0.0 0.00 0.36 0.00 77 1022.9
20260507065008 13 202 6.4 0.0 0.00 0.36 0.00 77 1022.9
20260507064908 13 202 3.2 0.0 0.00 0.36 0.00 77 1022.9
20260507064808 13 180 1.6 0.0 0.00 0.36 0.00 77 1022.7
20260507064708 13 180 0.0 0.0 0.00 0.36 0.00 77 1022.7
20260507064608 13 180 4.8 0.0 0.00 0.36 0.00 77 1022.9
20260507064508 12 180 0.0 0.0 0.00 0.36 0.00 77 1022.7
20260507064408 13 157 0.0 0.0 0.00 0.36 0.00 77 1022.7
20260507064308 12 157 3.2 0.0 0.00 0.36 0.00 78 1022.7
20260507064208 12 180 0.0 0.0 0.00 0.36 0.00 78 1022.7
20260507064108 12 180 3.2 0.0 0.00 0.36 0.00 77 1022.7
20260507064008 12 157 0.0 0.0 0.00 0.36 0.00 77 1022.7
20260507063908 12 180 0.0 0.0 0.00 0.36 0.00 77 1022.7
20260507063808 12 202 9.7 0.0 0.00 0.36 0.00 77 1022.7
20260507063708 12 202 1.6 0.0 0.00 0.36 0.00 77 1022.7
20260507063608 12 202 0.0 0.0 0.00 0.36 0.00 77 1022.7
20260507063508 12 180 0.0 0.0 0.00 0.36 0.00 77 1022.9
20260507063408 12 180 8.0 0.0 0.00 0.36 0.00 77 1022.9
20260507063308 12 180 0.0 0.0 0.00 0.36 0.00 77 1022.9
20260507063208 12 180 8.0 0.0 0.00 0.36 0.00 78 1022.9
20260507063108 12 180 8.0 0.0 0.00 0.36 0.00 78 1022.9
20260507063008 12 180 9.7 0.0 0.00 0.36 0.00 78 1022.7
20260507062908 12 180 0.0 0.0 0.00 0.36 0.00 78 1022.7
20260507062808 12 202 11.3 0.0 0.00 0.36 0.00 78 1022.7
20260507062708 12 180 6.4 0.0 0.00 0.36 0.00 78 1022.9
20260507062608 12 180 0.0 0.0 0.00 0.36 0.00 78 1022.9
20260507062508 12 202 11.3 0.0 0.00 0.36 0.00 78 1022.7
20260507062408 12 157 0.0 0.0 0.00 0.36 0.00 78 1022.7
20260507062308 11 180 0.0 0.0 0.00 0.36 0.00 78 1022.7
20260507062208 11 180 12.9 0.0 0.00 0.36 0.00 78 1022.7
20260507062108 11 202 11.3 0.0 0.00 0.36 0.00 78 1022.7
20260507062008 11 180 3.2 0.0 0.00 0.36 0.00 78 1022.7
20260507061908 11 180 0.0 0.0 0.00 0.36 0.00 78 1022.7
20260507061808 11 180 0.0 0.0 0.00 0.36 0.00 78 1022.7
20260507061708 11 180 0.0 0.0 0.00 0.36 0.00 78 1022.7
20260507061608 11 180 0.0 0.0 0.00 0.36 0.00 78 1022.7
20260507061508 11 180 4.8 0.0 0.00 0.36 0.00 78 1022.7
20260507061408 11 202 0.0 0.0 0.00 0.36 0.00 78 1022.7
20260507061308 11 202 0.0 0.0 0.00 0.36 0.00 78 1022.7
20260507061208 11 202 0.0 0.0 0.05 0.36 0.00 78 1022.7
20260507061108 11 180 4.8 0.0 0.05 0.36 0.00 78 1022.7
20260507061018 11 202 8.0 0.0 0.05 0.36 0.00 78 1022.7
20260507060908 11 202 17.7 0.0 0.05 0.36 0.00 78 1022.7
20260507060808 11 180 0.0 0.0 0.05 0.36 0.00 78 1022.7
20260507060708 11 225 0.0 0.0 0.05 0.36 0.00 78 1022.7
20260507060608 11 180 9.7 0.0 0.05 0.36 0.00 78 1022.7
20260507060508 11 202 0.0 0.0 0.05 0.36 0.00 78 1022.7
20260507060408 11 180 0.0 0.0 0.05 0.36 0.00 78 1022.7
20260507060308 11 180 6.4 0.0 0.05 0.36 0.00 79 1022.7
20260507060208 11 157 0.0 0.0 0.05 0.36 0.00 79 1022.5
20260507060108 11 180 0.0 0.0 0.05 0.36 0.00 79 1022.5
20260507060008 11 180 11.3 0.0 0.05 0.05 0.00 79 1022.7
20260507055908 10 180 11.3 0.0 0.05 0.36 0.00 79 1022.7
20260507055808 10 180 0.0 0.0 0.05 0.36 0.00 79 1022.5
20260507055708 10 180 0.0 0.0 0.05 0.36 0.00 79 1022.4
20260507055608 10 180 0.0 0.0 0.05 0.36 0.00 79 1022.4
20260507055508 10 180 0.0 0.0 0.05 0.36 0.00 79 1022.4
20260507055408 10 202 0.0 0.0 0.05 0.36 0.00 79 1022.5
20260507055308 10 202 6.4 0.0 0.05 0.36 0.00 79 1022.5
20260507055208 10 180 4.8 0.0 0.05 0.36 0.00 79 1022.5
20260507055108 10 180 4.8 0.0 0.05 0.36 0.00 79 1022.4
20260507055008 10 202 0.0 0.0 0.05 0.36 0.00 79 1022.2
20260507054908 10 225 0.0 0.0 0.05 0.36 0.00 79 1022.4
20260507054808 10 202 8.0 0.0 0.05 0.36 0.00 79 1022.2
20260507054708 10 180 4.8 0.0 0.05 0.36 0.00 79 1022.2
20260507054608 10 202 8.0 0.0 0.05 0.36 0.00 79 1022.2
20260507054508 10 180 0.0 0.0 0.05 0.36 0.00 79 1022.2
20260507054408 10 202 12.9 0.0 0.05 0.36 0.00 79 1022.2
20260507054308 10 202 1.6 0.0 0.05 0.36 0.00 79 1022.4
20260507054200 10 180 3.2 0.0 0.05 0.36 0.00 79 1022.4
20260507054108 10 180 0.0 0.0 0.05 0.36 0.00 79 1022.4
20260507054008 10 180 0.0 0.0 0.05 0.36 0.00 79 1022.4
20260507053908 10 202 3.2 0.0 0.05 0.36 0.00 79 1022.2
20260507053808 10 180 16.1 0.0 0.05 0.36 0.00 79 1022.4
20260507053708 9 180 4.8 0.0 0.05 0.36 0.00 79 1022.2
20260507053611 9 180 12.9 0.0 0.05 0.36 0.00 79 1022.4
20260507053408 9 180 14.5 0.0 0.05 0.36 0.00 79 1022.4
20260507053308 9 180 9.7 0.0 0.05 0.36 0.00 79 1022.2
20260507053208 9 202 3.2 0.0 0.05 0.36 0.00 79 1022.4
20260507053108 9 180 0.0 0.0 0.05 0.36 0.00 79 1022.2
20260507053008 9 180 8.0 0.0 0.05 0.36 0.00 79 1022.2
20260507052908 9 180 3.2 0.0 0.05 0.36 0.00 79 1022.2
20260507052808 9 157 3.2 0.0 0.05 0.36 0.00 79 1022.2
20260507052708 9 180 6.4 0.0 0.05 0.36 0.00 79 1022.2
20260507052608 9 180 6.4 0.0 0.05 0.36 0.00 79 1022.2
20260507052508 8 202 6.4 0.0 0.05 0.36 0.00 79 1022.2
20260507052408 8 180 3.2 0.0 0.10 0.36 0.00 79 1022.2
20260507052308 8 180 6.4 0.0 0.10 0.36 0.00 79 1022.2
20260507052208 8 157 6.4 0.0 0.10 0.36 0.00 79 1022.2
20260507052108 8 180 0.0 0.0 0.10 0.36 0.00 79 1022.2
20260507052008 8 180 0.0 0.0 0.10 0.36 0.00 79 1022.2
20260507051908 8 180 0.0 0.0 0.10 0.36 0.00 79 1022.2
20260507051808 8 180 0.0 0.0 0.10 0.36 0.00 79 1022.2
20260507051708 8 180 0.0 0.0 0.10 0.36 0.00 79 1022.2
20260507051608 8 180 0.0 0.0 0.10 0.30 0.00 79 1022.2
20260507051508 8 180 0.0 0.0 0.05 0.30 0.00 79 1022.2
20260507051408 8 180 0.0 0.0 0.05 0.30 0.00 79 1022.0
20260507051308 8 180 0.0 0.0 0.05 0.30 0.00 79 1022.2
20260507051208 8 180 0.0 0.0 0.05 0.30 0.00 79 1022.2
20260507051108 8 180 0.0 0.0 0.05 0.30 0.00 79 1022.2
20260507051008 8 180 0.0 0.0 0.05 0.30 0.00 79 1022.0
20260507050908 8 180 0.0 0.0 0.05 0.30 0.00 79 1022.2
20260507050808 8 180 1.6 0.0 0.05 0.30 0.00 79 1022.0
20260507050708 8 180 0.0 0.0 0.05 0.30 0.00 79 1022.2
20260507050608 8 180 6.4 0.0 0.05 0.30 0.00 79 1022.0
20260507050508 8 180 0.0 0.0 0.05 0.30 0.00 79 1022.0
20260507050408 8 180 0.0 0.0 0.05 0.30 0.00 79 1022.0
20260507050308 8 180 1.6 0.0 0.05 0.30 0.00 79 1022.0
20260507050208 8 180 0.0 0.0 0.05 0.30 0.00 79 1022.0
20260507050108 8 180 4.8 0.0 0.05 0.30 0.00 79 1022.0
20260507050008 8 180 0.0 0.0 0.05 0.30 0.00 79 1021.9
20260507045908 8 157 0.0 0.0 0.05 0.30 0.00 79 1021.9
20260507045808 8 180 0.0 0.0 0.05 0.30 0.00 79 1021.9
20260507045708 8 180 3.2 0.0 0.05 0.30 0.00 79 1021.9
20260507045608 8 180 0.0 0.0 0.05 0.30 0.00 79 1021.7
20260507045508 8 180 0.0 0.0 0.05 0.30 0.00 79 1021.9
20260507045408 8 180 0.0 0.0 0.05 0.30 0.00 79 1021.9
20260507045308 8 180 0.0 0.0 0.05 0.30 0.00 79 1021.9
20260507045208 8 180 0.0 0.0 0.05 0.30 0.00 79 1021.9
20260507045108 8 202 0.0 0.0 0.05 0.30 0.00 79 1021.9
20260507045008 8 202 0.0 0.0 0.05 0.30 0.00 79 1021.7
20260507044908 8 202 0.0 0.0 0.05 0.30 0.00 79 1021.9
20260507044808 8 202 0.0 0.0 0.05 0.30 0.00 79 1021.7
20260507044708 8 202 0.0 0.0 0.05 0.30 0.00 79 1021.7
20260507044608 8 202 0.0 0.0 0.05 0.30 0.00 79 1021.9
20260507044508 8 202 0.0 0.0 0.05 0.30 0.00 79 1021.7
20260507044408 8 202 0.0 0.0 0.05 0.30 0.00 79 1021.7
20260507044308 8 202 0.0 0.0 0.05 0.30 0.00 79 1021.9
20260507044208 8 202 0.0 0.0 0.05 0.30 0.00 79 1021.7
20260507044108 8 202 0.0 0.0 0.05 0.30 0.00 79 1021.7
20260507044008 8 202 0.0 0.0 0.05 0.30 0.00 79 1021.7
20260507043908 8 202 0.0 0.0 0.05 0.30 0.00 79 1021.7
20260507043808 8 202 0.0 0.0 0.05 0.30 0.00 79 1021.7
20260507043708 8 202 0.0 0.0 0.05 0.30 0.00 79 1021.7
20260507043608 8 202 0.0 0.0 0.05 0.30 0.00 79 1021.7
20260507043508 8 202 0.0 0.0 0.05 0.30 0.00 79 1021.5
20260507043408 8 202 0.0 0.0 0.05 0.30 0.00 79 1021.5
20260507043308 8 202 0.0 0.0 0.05 0.30 0.00 79 1021.7
20260507043208 8 202 0.0 0.0 0.05 0.30 0.00 79 1021.7
20260507043108 8 180 0.0 0.0 0.05 0.30 0.00 79 1021.5
20260507043008 8 180 0.0 0.0 0.05 0.30 0.00 79 1021.5
20260507042908 8 180 3.2 0.0 0.05 0.30 0.00 79 1021.5
20260507042808 8 180 0.0 0.0 0.05 0.30 0.00 79 1021.5
20260507042708 8 202 9.7 0.0 0.00 0.25 0.00 79 1021.5
20260507042608 8 202 8.0 0.0 0.00 0.25 0.00 79 1021.5
20260507042508 8 180 0.0 0.0 0.00 0.25 0.00 79 1021.5
20260507042408 8 180 0.0 0.0 0.00 0.25 0.00 79 1021.5
20260507042308 8 180 8.0 0.0 0.00 0.25 0.00 79 1021.5
20260507042208 8 180 0.0 0.0 0.00 0.25 0.00 79 1021.5
20260507042108 8 180 0.0 0.0 0.00 0.25 0.00 79 1021.5
20260507042008 8 180 0.0 0.0 0.00 0.25 0.00 79 1021.5
20260507041908 8 202 0.0 0.0 0.00 0.25 0.00 79 1021.5
20260507041808 8 202 12.9 0.0 0.00 0.25 0.00 79 1021.5
20260507041708 8 180 0.0 0.0 0.00 0.25 0.00 79 1021.5
20260507041608 8 202 8.0 0.0 0.00 0.25 0.00 79 1021.5
20260507041508 8 202 0.0 0.0 0.00 0.25 0.00 79 1021.5
20260507041408 8 202 0.0 0.0 0.00 0.25 0.00 79 1021.5
20260507041308 8 202 4.8 0.0 0.00 0.25 0.00 79 1021.5
20260507041208 8 180 3.2 0.0 0.00 0.25 0.00 79 1021.5
20260507041108 8 180 12.9 0.0 0.00 0.25 0.00 79 1021.5
20260507041008 8 202 1.6 0.0 0.00 0.25 0.00 79 1021.5
20260507040908 8 180 0.0 0.0 0.00 0.25 0.00 79 1021.5
20260507040808 8 180 6.4 0.0 0.00 0.25 0.00 79 1021.5
20260507040708 8 180 0.0 0.0 0.00 0.25 0.00 79 1021.5
20260507040608 8 180 0.0 0.0 0.00 0.25 0.00 79 1021.5
20260507040508 8 180 0.0 0.0 0.00 0.25 0.00 79 1021.5
20260507040408 8 202 0.0 0.0 0.00 0.25 0.00 79 1021.5
20260507040308 8 180 0.0 0.0 0.00 0.25 0.00 79 1021.5
20260507040208 8 180 0.0 0.0 0.00 0.25 0.00 79 1021.5
20260507040108 8 180 3.2 0.0 0.00 0.25 0.00 79 1021.5
20260507040008 8 180 0.0 0.0 0.00 0.25 0.00 79 1021.5
20260507035908 8 202 0.0 0.0 0.00 0.25 0.00 79 1021.5
20260507035808 8 180 14.5 0.0 0.00 0.25 0.00 79 1021.5
20260507035708 8 180 1.6 0.0 0.00 0.25 0.00 79 1021.5
20260507035608 8 202 17.7 0.0 0.00 0.25 0.00 79 1021.5
20260507035508 8 157 1.6 0.0 0.00 0.25 0.00 79 1021.5
20260507035408 8 180 0.0 0.0 0.00 0.25 0.00 79 1021.5
20260507035308 8 202 8.0 0.0 0.00 0.25 0.00 79 1021.5
20260507035208 8 202 12.9 0.0 0.00 0.25 0.00 79 1021.5
20260507035108 8 180 0.0 0.0 0.00 0.25 0.00 79 1021.5
20260507035008 8 180 14.5 0.0 0.00 0.25 0.00 79 1021.5
20260507034908 8 202 6.4 0.0 0.00 0.25 0.00 79 1021.5
20260507034808 7 180 12.9 0.0 0.00 0.25 0.00 79 1021.4
20260507034708 7 180 4.8 0.0 0.00 0.25 0.00 79 1021.5
20260507034608 7 180 4.8 0.0 0.00 0.25 0.00 79 1021.5
20260507034508 7 180 0.0 0.0 0.00 0.25 0.00 79 1021.5
20260507034408 7 202 9.7 0.0 0.00 0.25 0.00 79 1021.5
20260507034308 7 180 0.0 0.0 0.00 0.25 0.00 79 1021.5
20260507034208 7 180 0.0 0.0 0.00 0.25 0.00 79 1021.5
20260507034108 7 180 0.0 0.0 0.00 0.25 0.00 79 1021.5
20260507034008 7 180 4.8 0.0 0.00 0.25 0.00 79 1021.5
20260507033908 7 180 6.4 0.0 0.00 0.25 0.00 79 1021.5
20260507033808 7 180 1.6 0.0 0.00 0.25 0.00 79 1021.5
20260507033708 7 180 0.0 0.0 0.00 0.25 0.00 79 1021.5
20260507033608 7 180 8.0 0.0 0.00 0.25 0.00 79 1021.5
20260507033508 7 180 11.3 0.0 0.00 0.25 0.00 79 1021.4
20260507033408 7 180 0.0 0.0 0.00 0.25 0.00 79 1021.5
20260507033308 7 180 8.0 0.0 0.00 0.25 0.00 79 1021.4
20260507033208 7 180 3.2 0.0 0.00 0.25 0.00 79 1021.4
20260507033108 7 180 16.1 0.0 0.00 0.25 0.00 79 1021.4
20260507033008 7 202 11.3 0.0 0.00 0.25 0.00 79 1021.2
20260507032908 7 180 9.7 0.0 0.00 0.25 0.00 79 1021.4
20260507032808 7 180 9.7 0.0 0.00 0.25 0.00 79 1021.5
20260507032708 7 180 12.9 0.0 0.00 0.25 0.00 79 1021.2
20260507032608 7 180 1.6 0.0 0.00 0.25 0.00 79 1021.2
20260507032508 7 157 3.2 0.0 0.00 0.25 0.00 79 1021.4
20260507032408 7 180 16.1 0.0 0.00 0.25 0.00 79 1021.4
20260507032308 7 180 8.0 0.0 0.20 0.25 0.00 79 1021.4
20260507032208 7 157 0.0 0.0 0.00 0.25 0.00 79 1021.2
20260507032108 7 180 3.2 0.0 0.00 0.25 0.00 79 1021.2
20260507032008 7 180 8.0 0.0 0.00 0.25 0.00 79 1021.2
20260507031919 7 180 14.5 0.0 0.00 0.25 0.00 79 1021.2
20260507031708 7 180 0.0 0.0 0.00 0.25 0.00 79 1021.4
20260507031608 7 157 0.0 0.0 0.00 0.25 0.00 79 1021.4
20260507031508 7 157 4.8 0.0 0.00 0.25 0.00 79 1021.2
20260507031408 7 202 20.9 0.0 0.00 0.25 0.00 79 1021.2
20260507031308 7 180 0.0 0.0 0.00 0.25 0.00 79 1021.4
20260507031208 7 180 12.9 0.0 0.00 0.25 0.00 79 1021.4
20260507031108 7 202 9.7 0.0 0.00 0.25 0.00 79 1021.4
20260507031008 7 180 8.0 0.0 0.00 0.25 0.00 79 1021.2
20260507030908 7 180 0.0 0.0 0.00 0.25 0.00 79 1021.2
20260507030808 7 202 12.9 0.0 0.00 0.25 0.00 79 1021.2
20260507030708 7 180 0.0 0.0 0.00 0.25 0.00 79 1021.2
20260507030608 7 157 11.3 0.0 0.00 0.25 0.00 79 1021.2
20260507030508 7 180 0.0 0.0 0.00 0.25 0.00 79 1021.2
20260507030408 7 180 0.0 0.0 0.00 0.25 0.00 79 1021.2
20260507030308 7 180 0.0 0.0 0.00 0.25 0.00 79 1021.2
20260507030208 7 180 0.0 0.0 0.00 0.25 0.00 79 1021.2
20260507030108 7 180 16.1 0.0 0.00 0.25 0.00 79 1021.2
20260507030008 7 180 0.0 0.0 0.00 0.25 0.00 79 1021.2
20260507025908 7 202 0.0 0.0 0.00 0.25 0.00 79 1021.2
20260507025808 7 180 0.0 0.0 0.00 0.25 0.00 79 1021.2
20260507025708 7 180 4.8 0.0 0.00 0.25 0.00 79 1021.2
20260507025608 7 157 3.2 0.0 0.00 0.25 0.00 79 1021.2
20260507025508 7 180 0.0 0.0 0.00 0.25 0.00 79 1021.2
20260507025408 7 180 0.0 0.0 0.00 0.25 0.00 79 1021.2
20260507025308 7 202 0.0 0.0 0.00 0.25 0.00 79 1021.0
20260507025208 7 202 4.8 0.0 0.00 0.25 0.00 79 1021.0
20260507025108 7 157 0.0 0.0 0.00 0.25 0.00 79 1021.2
20260507025008 7 180 0.0 0.0 0.00 0.25 0.00 79 1021.2
20260507024908 7 180 0.0 0.0 0.00 0.25 0.00 79 1021.0
20260507024808 7 157 0.0 0.0 0.00 0.25 0.00 79 1021.0
20260507024708 7 180 0.0 0.0 0.00 0.25 0.00 79 1021.2
20260507024608 7 180 4.8 0.0 0.00 0.25 0.00 79 1021.2
20260507024508 7 180 3.2 0.0 0.00 0.25 0.00 79 1021.0
20260507024408 7 180 4.8 0.0 0.00 0.25 0.00 79 1021.0
20260507024308 7 180 0.0 0.0 0.00 0.25 0.00 79 1021.0
20260507024208 7 180 4.8 0.0 0.00 0.25 0.00 79 1021.0
20260507024108 7 157 1.6 0.0 0.00 0.25 0.00 79 1021.0
20260507024008 7 180 6.4 0.0 0.00 0.25 0.00 79 1021.0
20260507023908 7 180 1.6 0.0 0.00 0.25 0.00 79 1021.0
20260507023808 7 180 20.9 0.0 0.00 0.25 0.00 79 1021.0
20260507023708 7 157 0.0 0.0 0.00 0.25 0.00 79 1021.0
20260507023608 7 180 6.4 0.0 0.00 0.25 0.00 79 1021.0
20260507023508 7 157 0.0 0.0 0.00 0.25 0.00 79 1021.0
20260507023408 7 180 0.0 0.0 0.00 0.25 0.00 79 1021.0
20260507023308 7 180 0.0 0.0 0.00 0.25 0.00 79 1021.0
20260507023208 7 180 9.7 0.0 0.00 0.25 0.00 79 1021.0
20260507023108 7 202 8.0 0.0 0.00 0.25 0.00 79 1021.0
20260507023008 7 202 9.7 0.0 0.00 0.25 0.00 79 1021.0
20260507022908 7 180 1.6 0.0 0.00 0.25 0.00 79 1021.0
20260507022808 7 157 3.2 0.0 0.00 0.25 0.00 79 1021.0
20260507022708 7 157 0.0 0.0 0.00 0.25 0.00 79 1021.0
20260507022608 7 180 0.0 0.0 0.00 0.25 0.00 79 1021.0
20260507022508 6 180 0.0 0.0 0.00 0.25 0.00 79 1021.0
20260507022408 6 180 0.0 0.0 0.00 0.25 0.00 79 1021.0
20260507022308 6 180 0.0 0.0 0.00 0.25 0.00 79 1021.2
20260507022208 6 180 0.0 0.0 0.00 0.25 0.00 78 1021.0
20260507022108 6 180 0.0 0.0 0.00 0.25 0.00 78 1021.0
20260507022008 6 180 0.0 0.0 0.00 0.25 0.00 79 1021.0
20260507021908 6 180 0.0 0.0 0.00 0.25 0.00 79 1021.0
20260507021808 6 180 0.0 0.0 0.00 0.25 0.00 79 1021.0
20260507021708 6 180 0.0 0.0 0.00 0.25 0.00 79 1021.0
20260507021608 6 180 0.0 0.0 0.00 0.25 0.00 79 1021.0
20260507021508 6 180 0.0 0.0 0.00 0.25 0.00 79 1021.0
20260507021408 6 157 0.0 0.0 0.00 0.25 0.00 79 1021.0
20260507021308 6 180 0.0 0.0 0.00 0.25 0.00 78 1021.0
20260507021200 6 247 0.0 0.0 0.00 0.25 0.00 78 1021.0
20260507021108 6 247 0.0 0.0 0.00 0.25 0.00 78 1021.0
20260507021008 6 247 0.0 0.0 0.00 0.25 0.00 78 1021.2
20260507020908 6 247 0.0 0.0 0.00 0.25 0.00 78 1021.0
20260507020808 6 247 0.0 0.0 0.00 0.25 0.00 78 1021.0
20260507020708 6 247 0.0 0.0 0.00 0.25 0.00 78 1021.0
20260507020608 6 247 0.0 0.0 0.00 0.25 0.00 78 1021.0
20260507020508 6 247 0.0 0.0 0.00 0.25 0.00 78 1021.0
20260507020408 6 247 0.0 0.0 0.00 0.25 0.00 78 1021.0
20260507020308 6 247 0.0 0.0 0.00 0.25 0.00 78 1021.0
20260507020208 6 247 0.0 0.0 0.00 0.25 0.00 78 1021.0
20260507020108 6 247 0.0 0.0 0.00 0.25 0.00 78 1021.0
20260507020008 6 247 0.0 0.0 0.00 0.25 0.00 78 1021.0
20260507015908 6 247 0.0 0.0 0.00 0.25 0.00 78 1021.0
20260507015808 6 247 0.0 0.0 0.00 0.25 0.00 78 1021.0
20260507015708 6 247 0.0 0.0 0.00 0.25 0.00 78 1021.0
20260507015608 6 247 0.0 0.0 0.00 0.25 0.00 78 1021.0
20260507015508 6 247 0.0 0.0 0.00 0.25 0.00 78 1021.0
20260507015408 6 247 0.0 0.0 0.00 0.25 0.00 78 1020.9
20260507015308 6 247 0.0 0.0 0.00 0.25 0.00 78 1021.0
20260507015208 6 247 0.0 0.0 0.00 0.25 0.00 78 1021.0
20260507015108 6 247 0.0 0.0 0.00 0.25 0.00 78 1021.0
20260507015008 6 247 0.0 0.0 0.00 0.25 0.00 78 1020.9
20260507014908 6 247 0.0 0.0 0.00 0.25 0.00 78 1021.0
20260507014808 6 247 0.0 0.0 0.00 0.25 0.00 78 1021.0
20260507014708 6 247 0.0 0.0 0.00 0.25 0.00 78 1020.9
20260507014608 6 247 0.0 0.0 0.00 0.25 0.00 78 1020.9
20260507014508 6 247 0.0 0.0 0.00 0.25 0.00 78 1020.7
20260507014408 6 247 0.0 0.0 0.00 0.25 0.00 78 1020.9
20260507014308 6 247 0.0 0.0 0.00 0.25 0.00 78 1020.9
20260507014200 6 247 0.0 0.0 0.00 0.25 0.00 78 1020.9
20260507014108 6 247 0.0 0.0 0.00 0.25 0.00 78 1020.9
20260507014008 6 247 0.0 0.0 0.00 0.25 0.00 78 1020.7
20260507013908 6 247 0.0 0.0 0.00 0.25 0.00 78 1020.7
20260507013808 6 247 0.0 0.0 0.00 0.25 0.00 78 1020.7
20260507013708 5 247 0.0 0.0 0.00 0.25 0.00 78 1020.7
20260507013608 5 247 0.0 0.0 0.00 0.25 0.00 78 1020.9
20260507013508 5 247 0.0 0.0 0.00 0.25 0.00 78 1020.9
20260507013408 5 247 0.0 0.0 0.00 0.25 0.00 78 1020.7
20260507013308 5 247 0.0 0.0 0.00 0.25 0.00 78 1020.7
20260507013208 5 247 0.0 0.0 0.00 0.25 0.00 78 1020.7
20260507013108 5 247 0.0 0.0 0.00 0.25 0.00 78 1020.7
20260507013008 5 247 0.0 0.0 0.00 0.25 0.00 78 1020.7
20260507012908 5 202 0.0 0.0 0.00 0.25 0.00 78 1020.9
20260507012808 5 180 0.0 0.0 0.00 0.25 0.00 78 1020.7
20260507012700 5 180 0.0 0.0 0.00 0.25 0.00 78 1020.7
20260507012608 5 180 0.0 0.0 0.00 0.25 0.00 78 1020.7
20260507012508 5 157 0.0 0.0 0.00 0.25 0.00 78 1020.7
20260507012408 5 157 0.0 0.0 0.00 0.25 0.00 77 1020.7
20260507012308 5 157 0.0 0.0 0.00 0.25 0.00 77 1020.7
20260507012208 5 157 0.0 0.0 0.00 0.25 0.00 77 1020.5
20260507012108 5 157 0.0 0.0 0.00 0.25 0.00 77 1020.7
20260507012008 5 157 0.0 0.0 0.00 0.25 0.00 77 1020.7
20260507011908 5 157 0.0 0.0 0.00 0.25 0.00 77 1020.7
20260507011808 5 157 0.0 0.0 0.00 0.25 0.00 77 1020.7
20260507011708 5 157 0.0 0.0 0.00 0.25 0.00 77 1020.7
20260507011608 5 157 0.0 0.0 0.00 0.25 0.00 77 1020.7
20260507011508 5 157 0.0 0.0 0.00 0.25 0.00 77 1020.7
20260507011408 5 157 0.0 0.0 0.00 0.25 0.00 77 1020.7
20260507011308 5 157 0.0 0.0 0.00 0.25 0.00 77 1020.7
20260507011208 5 157 0.0 0.0 0.00 0.25 0.00 77 1020.7
20260507011108 5 157 0.0 0.0 0.00 0.25 0.00 77 1020.7
20260507011008 5 157 0.0 0.0 0.00 0.25 0.00 77 1020.9
20260507010908 5 157 0.0 0.0 0.00 0.25 0.00 77 1020.9
20260507010808 5 157 0.0 0.0 0.00 0.25 0.00 77 1020.7
20260507010708 5 157 0.0 0.0 0.00 0.25 0.00 77 1020.9
20260507010608 5 157 0.0 0.0 0.00 0.25 0.00 77 1020.9
20260507010508 5 157 0.0 0.0 0.00 0.25 0.00 77 1020.9
20260507010408 5 157 0.0 0.0 0.00 0.25 0.00 77 1020.9
20260507010308 5 157 0.0 0.0 0.00 0.25 0.00 77 1020.7
20260507010208 5 157 0.0 0.0 0.00 0.25 0.00 77 1020.7
20260507010108 5 157 0.0 0.0 0.00 0.25 0.00 77 1020.7
20260507010007 5 157 0.0 0.0 0.00 0.25 0.00 77 1020.7
20260507005908 5 157 0.0 0.0 0.00 0.25 0.00 77 1020.7
20260507005807 5 157 0.0 0.0 0.00 0.25 0.00 77 1020.7
20260507005700 5 157 0.0 0.0 0.00 0.25 0.00 77 1020.7
20260507005608 5 157 0.0 0.0 0.00 0.25 0.00 77 1020.7
20260507005508 5 157 0.0 0.0 0.00 0.25 0.00 77 1020.7
20260507005408 5 157 0.0 0.0 0.00 0.25 0.00 77 1020.7
20260507005308 5 157 0.0 0.0 0.00 0.25 0.00 77 1020.7
20260507005208 5 157 0.0 0.0 0.00 0.25 0.00 77 1020.7
20260507005108 5 157 0.0 0.0 0.00 0.25 0.00 77 1020.7
20260507005007 5 157 0.0 0.0 0.00 0.25 0.00 77 1020.7
20260507004908 5 157 0.0 0.0 0.00 0.25 0.00 77 1020.7
20260507004808 5 157 0.0 0.0 0.00 0.25 0.00 77 1020.7
20260507004708 5 157 0.0 0.0 0.00 0.25 0.00 77 1020.5
20260507004608 5 157 0.0 0.0 0.00 0.25 0.00 77 1020.5
20260507004507 5 157 0.0 0.0 0.00 0.25 0.00 77 1020.5
20260507004407 5 157 0.0 0.0 0.00 0.25 0.00 77 1020.5
20260507004307 5 157 0.0 0.0 0.00 0.25 0.00 77 1020.5
20260507004207 5 157 0.0 0.0 0.00 0.25 0.00 77 1020.5
20260507004108 5 157 0.0 0.0 0.00 0.25 0.00 77 1020.5
20260507004008 5 157 0.0 0.0 0.00 0.25 0.00 77 1020.5
20260507003908 5 157 0.0 0.0 0.00 0.25 0.00 77 1020.5
20260507003807 5 157 0.0 0.0 0.00 0.25 0.00 77 1020.5
20260507003708 5 157 0.0 0.0 0.00 0.25 0.00 77 1020.5
20260507003608 5 157 0.0 0.0 0.00 0.25 0.00 77 1020.5
20260507003507 5 157 0.0 0.0 0.00 0.25 0.00 77 1020.5
20260507003407 5 157 0.0 0.0 0.00 0.25 0.00 77 1020.5
20260507003307 5 157 0.0 0.0 0.00 0.25 0.00 77 1020.5
20260507003207 5 157 0.0 0.0 0.00 0.25 0.00 77 1020.5
20260507003107 5 157 0.0 0.0 0.00 0.25 0.00 77 1020.5
20260507003007 5 157 0.0 0.0 0.00 0.25 0.00 77 1020.5
20260507002907 5 157 0.0 0.0 0.00 0.25 0.00 77 1020.5
20260507002807 5 157 0.0 0.0 0.00 0.25 0.00 77 1020.4
20260507002707 5 157 0.0 0.0 0.00 0.25 0.00 77 1020.4
20260507002607 5 157 0.0 0.0 0.00 0.25 0.00 77 1020.4
20260507002507 5 157 294.5 0.0 0.00 0.25 0.00 77 1020.4
20260507002407 5 157 0.0 0.0 0.00 0.25 0.00 77 1020.2
20260507002307 5 157 0.0 0.0 0.00 0.25 0.00 77 1020.2
20260507002207 5 157 0.0 0.0 0.00 0.25 0.00 77 1020.4
20260507002107 5 157 0.0 0.0 0.00 0.25 0.00 76 1020.4
20260507002007 5 157 0.0 0.0 0.00 0.25 0.00 76 1020.4
20260507001907 5 157 0.0 0.0 0.00 0.25 0.00 76 1020.4
20260507001807 5 157 0.0 0.0 0.00 0.25 0.00 76 1020.4
20260507001707 5 157 0.0 0.0 0.00 0.25 0.00 76 1020.4
20260507001607 5 157 0.0 0.0 0.00 0.25 0.00 76 1020.2
20260507001507 5 157 0.0 0.0 0.00 0.25 0.00 76 1020.4
20260507001407 5 157 0.0 0.0 0.00 0.25 0.00 76 1020.2
20260507001307 5 157 0.0 0.0 0.00 0.25 0.00 76 1020.2
20260507001207 5 157 0.0 0.0 0.00 0.25 0.00 76 1020.4
20260507001108 5 157 0.0 0.0 0.00 0.25 0.00 76 1020.4
20260507001007 5 157 0.0 0.0 0.00 0.25 0.00 76 1020.2
20260507000907 5 157 0.0 0.0 0.00 0.25 0.00 76 1020.2
20260507000807 5 157 0.0 0.0 0.00 0.25 0.00 76 1020.2
20260507000707 5 157 0.0 0.0 0.00 0.25 0.00 76 1020.2
20260507000607 5 157 0.0 0.0 0.00 0.25 0.00 76 1020.2
20260507000507 5 157 0.0 0.0 0.00 0.25 0.00 76 1020.2
20260507000407 5 157 0.0 0.0 0.00 0.25 0.00 76 1020.2
20260507000307 5 157 0.0 0.0 0.00 0.25 0.00 76 1020.4
20260507000207 5 157 0.0 0.0 0.00 0.25 0.00 76 1020.2
20260507000107 5 157 0.0 0.0 0.00 0.25 0.00 76 1020.2
20260507000007 5 157 0.0 0.0 0.00 0.25 0.00 76 1020.2
20260506235907 5 157 0.0 0.0 0.00 0.25 0.00 76 1020.2
20260506235807 5 157 0.0 0.0 0.00 0.25 0.00 76 1020.2
20260506235707 5 157 0.0 0.0 0.00 0.25 0.00 76 1020.2
20260506235607 5 157 0.0 0.0 0.00 0.25 0.00 76 1020.4
20260506235507 5 157 0.0 0.0 0.00 0.25 0.00 76 1020.4
20260506235407 5 157 0.0 0.0 0.00 0.25 0.00 76 1020.4
20260506235307 5 157 0.0 0.0 0.00 0.25 0.00 76 1020.5
20260506235207 5 157 0.0 0.0 0.00 0.25 0.00 76 1020.4
20260506235107 5 157 0.0 0.0 0.00 0.25 0.00 76 1020.5
20260506235007 5 157 0.0 0.0 0.00 0.25 0.00 76 1020.5
20260506234907 6 157 0.0 0.0 0.00 0.25 0.00 76 1020.4
20260506234807 6 157 0.0 0.0 0.00 0.25 0.00 76 1020.5
20260506234707 6 157 0.0 0.0 0.00 0.25 0.00 76 1020.5
20260506234607 6 157 0.0 0.0 0.00 0.25 0.00 76 1020.4
20260506234507 6 157 0.0 0.0 0.00 0.25 0.00 76 1020.4
20260506234407 6 157 0.0 0.0 0.00 0.25 0.00 76 1020.5
20260506234307 6 157 0.0 0.0 0.00 0.25 0.00 76 1020.4
20260506234207 6 157 0.0 0.0 0.00 0.25 0.00 76 1020.4
20260506234107 6 157 0.0 0.0 0.00 0.25 0.00 76 1020.4
20260506234007 6 157 0.0 0.0 0.00 0.25 0.00 76 1020.4
20260506233907 6 157 0.0 0.0 0.00 0.25 0.00 76 1020.2
20260506233807 6 157 0.0 0.0 0.00 0.25 0.00 76 1020.4
20260506233707 6 157 0.0 0.0 0.00 0.25 0.00 76 1020.4
20260506233607 6 157 0.0 0.0 0.00 0.25 0.00 76 1020.4
20260506233507 6 157 0.0 0.0 0.00 0.25 0.00 76 1020.2
20260506233407 6 157 0.0 0.0 0.00 0.25 0.00 76 1020.2
20260506233307 6 157 0.0 0.0 0.00 0.25 0.00 76 1020.2
20260506233207 6 157 0.0 0.0 0.00 0.25 0.00 76 1020.2
20260506233107 6 157 0.0 0.0 0.00 0.25 0.00 76 1020.2
20260506233007 6 157 0.0 0.0 0.00 0.25 0.00 76 1020.2
20260506232907 6 157 0.0 0.0 0.00 0.25 0.00 75 1020.2
20260506232807 6 157 0.0 0.0 0.00 0.25 0.00 75 1020.4
20260506232707 6 157 0.0 0.0 0.00 0.25 0.00 75 1020.2
20260506232607 6 157 0.0 0.0 0.00 0.25 0.00 75 1020.4
20260506232508 6 157 0.0 0.0 0.00 0.25 0.00 75 1020.4
20260506232407 6 157 0.0 0.0 0.00 0.25 0.00 75 1020.2
20260506232307 6 157 0.0 0.0 0.00 0.25 0.00 75 1020.2
20260506232207 6 157 0.0 0.0 0.00 0.25 0.00 75 1020.2
20260506232107 6 157 0.0 0.0 0.00 0.25 0.00 75 1020.2
20260506232007 6 157 0.0 0.0 0.00 0.25 0.00 75 1020.2
20260506231907 6 157 0.0 0.0 0.00 0.25 0.00 75 1020.2
20260506231807 6 157 0.0 0.0 0.00 0.25 0.00 75 1020.2
20260506231707 6 157 0.0 0.0 0.00 0.25 0.00 75 1020.2
20260506231607 6 157 0.0 0.0 0.00 0.25 0.00 75 1020.2
20260506231507 6 157 0.0 0.0 0.00 0.25 0.00 75 1020.2
20260506231407 6 157 0.0 0.0 0.00 0.25 0.00 75 1020.2
20260506231307 6 157 0.0 0.0 0.00 0.25 0.00 75 1020.2
20260506231207 6 157 0.0 0.0 0.00 0.25 0.00 75 1020.2
20260506231107 6 157 0.0 0.0 0.00 0.25 0.00 75 1020.2
20260506231007 6 157 0.0 0.0 0.20 0.25 0.00 75 1020.2
20260506230907 6 157 0.0 0.0 0.00 0.25 0.00 75 1020.2
20260506230807 6 157 0.0 0.0 0.00 0.25 0.00 75 1020.2
20260506230707 6 157 0.0 0.0 0.00 0.25 0.00 75 1020.2
20260506230607 6 157 0.0 0.0 0.00 0.25 0.00 75 1020.2
20260506230507 6 157 0.0 0.0 0.00 0.25 0.00 75 1020.2
20260506230407 6 157 0.0 0.0 0.00 0.25 0.00 75 1020.2
20260506230307 6 157 0.0 0.0 0.00 0.25 0.00 75 1020.2
20260506230207 6 157 0.0 0.0 0.00 0.25 0.00 75 1020.2
20260506230107 6 157 0.0 0.0 0.00 0.25 0.00 75 1020.0
20260506230007 7 157 0.0 0.0 0.00 0.25 0.00 75 1020.2
20260506225907 7 157 0.0 0.0 0.00 0.25 0.00 75 1020.0
20260506225807 7 157 0.0 0.0 0.00 0.25 0.00 75 1020.0
20260506225707 7 180 0.0 0.0 0.00 0.25 0.00 75 1020.2
20260506225607 7 180 0.0 0.0 0.00 0.25 0.00 75 1020.2
20260506225507 7 157 0.0 0.0 0.00 0.25 0.00 75 1020.2
20260506225407 7 157 0.0 0.0 0.00 0.25 0.00 75 1020.2
20260506225307 7 157 0.0 0.0 0.00 0.25 0.00 75 1020.2
20260506225207 7 180 0.0 0.0 0.00 0.25 0.00 75 1020.2
20260506225107 7 180 0.0 0.0 0.00 0.25 0.00 75 1020.2
20260506225007 7 180 0.0 0.0 0.00 0.25 0.00 75 1020.2
20260506224907 7 180 0.0 0.0 0.00 0.25 0.00 75 1020.2
20260506224807 7 180 0.0 0.0 0.00 0.25 0.00 75 1020.2
20260506224707 7 157 0.0 0.0 0.00 0.25 0.00 75 1020.2
20260506224607 7 157 0.0 0.0 0.00 0.25 0.00 75 1020.2
20260506224507 7 157 0.0 0.0 0.00 0.25 0.00 75 1020.2
20260506224407 7 157 0.0 0.0 0.00 0.25 0.00 75 1020.2
20260506224307 7 157 0.0 0.0 0.00 0.25 0.00 75 1020.2
20260506224207 7 157 0.0 0.0 0.00 0.25 0.00 75 1020.2
20260506224107 7 180 0.0 0.0 0.00 0.25 0.00 75 1020.2
20260506224007 7 180 0.0 0.0 0.00 0.25 0.00 75 1020.2
20260506223907 7 180 0.0 0.0 0.00 0.25 0.00 75 1020.0
20260506223807 7 180 0.0 0.0 0.00 0.25 0.00 75 1020.2
20260506223707 7 180 0.0 0.0 0.00 0.25 0.00 75 1020.2
20260506223607 7 180 0.0 0.0 0.00 0.25 0.00 75 1020.2
20260506223507 7 180 0.0 0.0 0.00 0.25 0.00 75 1020.2
20260506223407 7 180 0.0 0.0 0.00 0.25 0.00 74 1020.2
20260506223307 7 180 0.0 0.0 0.00 0.25 0.00 74 1020.2
20260506223207 7 180 0.0 0.0 0.00 0.25 0.00 74 1020.2
20260506223107 7 180 0.0 0.0 0.00 0.25 0.00 74 1020.2
20260506223007 7 180 0.0 0.0 0.00 0.25 0.00 74 1020.4
20260506222907 7 180 0.0 0.0 0.00 0.25 0.00 74 1020.2
20260506222807 7 180 0.0 0.0 0.00 0.25 0.00 74 1020.2
20260506222707 7 180 0.0 0.0 0.00 0.25 0.00 74 1020.2
20260506222607 7 180 0.0 0.0 0.00 0.25 0.00 74 1020.2
20260506222507 7 180 3.2 0.0 0.00 0.25 0.00 74 1020.4
20260506222407 7 180 0.0 0.0 0.00 0.25 0.00 74 1020.2
20260506222307 7 180 0.0 0.0 0.00 0.25 0.00 74 1020.2
20260506222208 7 180 0.0 0.0 0.00 0.25 0.00 74 1020.2
20260506222107 7 180 0.0 0.0 0.00 0.25 0.00 74 1020.2
20260506222007 7 180 0.0 0.0 0.00 0.25 0.00 74 1020.2
20260506221907 7 180 0.0 0.0 0.00 0.25 0.00 74 1020.2
20260506221807 7 180 0.0 0.0 0.00 0.25 0.00 74 1020.2
20260506221707 7 180 0.0 0.0 0.00 0.25 0.00 74 1020.2
20260506221607 7 180 0.0 0.0 0.00 0.25 0.00 74 1020.2
20260506221507 7 180 0.0 0.0 0.00 0.25 0.00 74 1020.0
20260506221407 7 180 0.0 0.0 0.00 0.25 0.00 74 1020.0
20260506221307 7 180 0.0 0.0 0.00 0.25 0.00 74 1020.0
20260506221200 7 180 0.0 0.0 0.00 0.25 0.00 74 1020.0
20260506221107 7 180 0.0 0.0 0.00 0.25 0.00 74 1020.2
20260506221007 7 180 0.0 0.0 0.00 0.25 0.00 74 1020.2
20260506220907 7 180 0.0 0.0 0.00 0.25 0.00 74 1020.2
20260506220807 7 180 0.0 0.0 0.00 0.25 0.00 74 1020.0
20260506220707 7 180 0.0 0.0 0.00 0.25 0.00 74 1020.0
20260506220607 8 180 0.0 0.0 0.00 0.25 0.00 74 1020.0
20260506220507 8 180 0.0 0.0 0.00 0.25 0.00 74 1020.0
20260506220407 8 180 0.0 0.0 0.00 0.25 0.00 74 1020.2
20260506220308 8 180 0.0 0.0 0.00 0.25 0.00 74 1020.0
20260506220207 8 180 0.0 0.0 0.00 0.25 0.00 74 1020.0
20260506220107 8 180 0.0 0.0 0.00 0.25 0.00 74 1020.0
20260506220007 8 180 0.0 0.0 0.00 0.25 0.00 74 1020.0
20260506215907 8 180 0.0 0.0 0.00 0.25 0.00 74 1020.0
20260506215807 8 180 0.0 0.0 0.00 0.25 0.00 74 1020.0
20260506215707 8 180 0.0 0.0 0.00 0.25 0.00 74 1020.0
20260506215607 8 180 0.0 0.0 0.00 0.25 0.00 74 1020.0
20260506215507 8 180 0.0 0.0 0.00 0.25 0.00 74 1020.0
20260506215407 8 180 0.0 0.0 0.00 0.25 0.00 74 1020.0
20260506215307 8 180 0.0 0.0 0.00 0.25 0.00 74 1020.0
20260506215207 8 180 0.0 0.0 0.00 0.25 0.00 74 1020.0
20260506215107 8 180 0.0 0.0 0.00 0.25 0.00 74 1020.0
20260506215007 8 180 0.0 0.0 0.00 0.25 0.00 74 1020.0
20260506214907 8 180 0.0 0.0 0.00 0.25 0.00 74 1020.0
20260506214807 8 180 0.0 0.0 0.00 0.25 0.00 74 1020.0
20260506214707 8 180 0.0 0.0 0.00 0.25 0.00 74 1020.0
20260506214607 8 180 0.0 0.0 0.00 0.25 0.00 74 1020.0
20260506214507 8 180 0.0 0.0 0.00 0.25 0.00 74 1020.0
20260506214407 8 180 0.0 0.0 0.00 0.25 0.00 74 1020.0
20260506214307 8 180 0.0 0.0 0.00 0.25 0.00 73 1019.9
20260506214207 8 180 0.0 0.0 0.00 0.25 0.00 73 1020.0
20260506214107 8 180 0.0 0.0 0.00 0.25 0.00 73 1020.0
20260506214007 8 180 0.0 0.0 0.00 0.25 0.00 73 1020.0
20260506213907 8 180 0.0 0.0 0.00 0.25 0.00 73 1020.0
20260506213807 8 180 0.0 0.0 0.00 0.25 0.00 73 1020.0
20260506213707 8 180 0.0 0.0 0.00 0.25 0.00 73 1020.0
20260506213607 8 180 0.0 0.0 0.00 0.25 0.00 73 1020.0
20260506213507 8 180 0.0 0.0 0.00 0.25 0.00 73 1020.0
20260506213407 8 180 0.0 0.0 0.00 0.25 0.00 73 1020.0
20260506213307 8 180 0.0 0.0 0.00 0.25 0.00 73 1020.0
20260506213207 8 180 0.0 0.0 0.00 0.25 0.00 73 1020.0
20260506213107 8 180 0.0 0.0 0.00 0.25 0.00 73 1020.0
20260506213007 8 180 0.0 0.0 0.00 0.25 0.00 73 1020.0
20260506212907 8 180 0.0 0.0 0.00 0.25 0.00 73 1020.0
20260506212807 8 180 0.0 0.0 0.00 0.25 0.00 73 1020.0
20260506212707 8 180 0.0 0.0 0.00 0.25 0.00 73 1020.0
20260506212607 8 180 0.0 0.0 0.00 0.25 0.00 73 1020.0
20260506212507 8 180 0.0 0.0 0.00 0.25 0.00 73 1019.9
20260506212407 8 180 0.0 0.0 0.00 0.25 0.00 73 1020.0
20260506212307 8 180 0.0 0.0 0.00 0.25 0.00 73 1020.0
20260506212207 8 180 0.0 0.0 0.00 0.25 0.00 73 1020.0
20260506212107 8 180 0.0 0.0 0.00 0.25 0.00 73 1020.0
20260506212007 8 180 0.0 0.0 0.00 0.25 0.00 73 1020.0
20260506211907 8 180 0.0 0.0 0.00 0.25 0.00 73 1020.0
20260506211807 8 180 0.0 0.0 0.00 0.25 0.00 73 1020.0
20260506211707 8 180 0.0 0.0 0.00 0.25 0.00 73 1020.0
20260506211607 8 180 0.0 0.0 0.00 0.25 0.00 73 1020.0
20260506211507 8 157 0.0 0.0 0.00 0.25 0.00 73 1019.9
20260506211407 8 157 0.0 0.0 0.00 0.25 0.00 73 1020.0
20260506211307 8 180 0.0 0.0 0.00 0.25 0.00 73 1020.0
20260506211207 8 180 0.0 0.0 0.00 0.25 0.00 73 1020.0
20260506211107 8 180 0.0 0.0 0.00 0.25 0.00 73 1020.0
20260506211007 8 180 0.0 0.0 0.00 0.25 0.00 73 1020.0
20260506210907 8 180 0.0 0.0 0.00 0.25 0.00 73 1020.0
20260506210807 8 180 0.0 0.0 0.00 0.25 0.00 73 1020.0
20260506210707 8 180 0.0 0.0 0.00 0.25 0.00 73 1019.9
20260506210607 8 180 0.0 0.0 0.00 0.25 0.00 73 1020.0
20260506210507 9 180 0.0 0.0 0.00 0.25 0.00 73 1020.0
20260506210407 9 180 0.0 0.0 0.00 0.25 0.00 73 1020.0
20260506210307 9 180 0.0 0.0 0.00 0.25 0.00 73 1020.0
20260506210207 9 180 0.0 0.0 0.00 0.25 0.00 73 1020.0
20260506210107 9 180 0.0 0.0 0.00 0.25 0.00 73 1020.2
20260506210007 9 180 0.0 0.0 0.00 0.25 0.00 73 1020.0
20260506205907 9 180 0.0 0.0 0.00 0.25 0.00 73 1020.0
20260506205807 9 180 0.0 0.0 0.00 0.25 0.00 73 1020.0
20260506205700 9 180 0.0 0.0 0.00 0.25 0.00 73 1020.0
20260506205607 9 157 3.2 0.0 0.00 0.25 0.00 73 1020.2
20260506205507 9 180 0.0 0.0 0.00 0.25 0.00 73 1020.0
20260506205407 9 202 0.0 0.0 0.00 0.25 0.00 72 1020.0
20260506205307 9 202 0.0 0.0 0.00 0.25 0.00 72 1020.0
20260506205207 9 180 0.0 0.0 0.00 0.25 0.00 72 1020.0
20260506205107 9 202 0.0 0.0 0.00 0.25 0.00 72 1020.0
20260506205007 9 202 0.0 0.0 0.00 0.25 0.00 72 1020.0
20260506204907 9 180 0.0 0.0 0.00 0.25 0.00 72 1020.0
20260506204807 9 180 0.0 0.0 0.00 0.25 0.00 72 1020.0
20260506204707 9 202 0.0 0.0 0.00 0.25 0.00 72 1020.0
20260506204607 9 202 8.0 0.0 0.00 0.25 0.00 72 1020.0
20260506204507 10 202 4.8 0.0 0.00 0.25 0.00 72 1020.0
20260506204407 10 202 14.5 0.0 0.00 0.25 0.00 72 1020.0
20260506204307 10 202 14.5 0.0 0.00 0.25 0.00 72 1020.0
20260506204207 10 202 0.0 0.0 0.00 0.25 0.00 72 1020.0
20260506204107 10 180 16.1 0.0 0.00 0.25 0.00 72 1020.0
20260506204007 10 202 0.0 0.0 0.00 0.25 0.00 72 1020.0
20260506203907 10 202 14.5 0.0 0.00 0.25 0.00 72 1020.2
20260506203807 10 180 0.0 0.0 0.00 0.25 0.00 72 1020.2
20260506203707 10 202 9.7 0.0 0.00 0.25 0.00 72 1020.0
20260506203607 10 202 0.0 0.0 0.00 0.25 0.00 72 1020.2
20260506203507 10 180 0.0 0.0 0.00 0.25 0.00 72 1020.2
20260506203407 10 202 0.0 0.0 0.00 0.25 0.00 72 1020.0
20260506203307 10 202 8.0 0.0 0.00 0.25 0.00 72 1020.0
20260506203207 10 180 0.0 0.0 0.00 0.25 0.00 72 1020.0
20260506203108 10 202 0.0 0.0 0.00 0.25 0.00 72 1020.0
20260506203007 10 202 3.2 0.0 0.00 0.25 0.00 72 1020.0
20260506202907 10 180 0.0 0.0 0.00 0.25 0.00 72 1020.0
20260506202807 10 180 0.0 0.0 0.00 0.25 0.00 72 1020.0
20260506202707 10 180 0.0 0.0 0.00 0.25 0.00 72 1020.0
20260506202607 10 180 0.0 0.0 0.00 0.25 0.00 72 1020.0
20260506202507 10 180 0.0 0.0 0.00 0.25 0.00 72 1020.0
20260506202407 10 180 0.0 0.0 0.00 0.25 0.00 72 1020.0
20260506202307 10 180 0.0 0.0 0.00 0.25 0.00 72 1020.0
20260506202207 10 180 0.0 0.0 0.00 0.25 0.00 72 1020.0
20260506202107 10 180 0.0 0.0 0.00 0.25 0.00 72 1020.0
20260506202007 10 180 0.0 0.0 0.00 0.25 0.00 72 1020.0
20260506201907 10 180 0.0 0.0 0.00 0.25 0.00 72 1020.0
20260506201807 10 180 0.0 0.0 0.00 0.25 0.00 72 1020.0
20260506201707 10 180 0.0 0.0 0.00 0.25 0.00 72 1019.9
20260506201607 10 180 0.0 0.0 0.00 0.25 0.00 72 1019.9
20260506201507 10 180 0.0 0.0 0.00 0.25 0.00 72 1019.9
20260506201407 10 180 0.0 0.0 0.00 0.25 0.00 72 1020.0
20260506201307 10 180 0.0 0.0 0.00 0.25 0.00 72 1019.9
20260506201207 10 180 0.0 0.0 0.00 0.25 0.00 72 1019.9
20260506201107 10 180 0.0 0.0 0.00 0.25 0.00 72 1019.9
20260506201007 10 180 0.0 0.0 0.00 0.25 0.00 72 1020.0
20260506200907 10 180 0.0 0.0 0.00 0.25 0.00 72 1020.0
20260506200807 10 157 0.0 0.0 0.00 0.25 0.00 72 1019.9
20260506200707 10 157 0.0 0.0 0.00 0.25 0.00 72 1020.0
20260506200607 10 157 0.0 0.0 0.00 0.25 0.00 72 1020.0
20260506200507 10 157 0.0 0.0 0.00 0.25 0.00 72 1020.0
20260506200407 10 157 0.0 0.0 0.00 0.25 0.00 72 1020.0
20260506200307 10 157 0.0 0.0 0.00 0.25 0.00 72 1020.0
20260506200207 10 157 0.0 0.0 0.00 0.25 0.00 72 1019.9
20260506200107 10 157 0.0 0.0 0.00 0.25 0.00 72 1019.9
20260506200007 10 157 0.0 0.0 0.00 0.25 0.00 72 1019.9
20260506195907 10 157 0.0 0.0 0.00 0.25 0.00 72 1020.0
20260506195807 10 157 0.0 0.0 0.00 0.25 0.00 72 1019.9
20260506195707 10 157 0.0 0.0 0.00 0.25 0.00 72 1019.7
20260506195607 10 157 0.0 0.0 0.00 0.25 0.00 72 1019.7
20260506195507 10 157 0.0 0.0 0.00 0.25 0.00 72 1019.9
20260506195407 10 157 0.0 0.0 0.00 0.25 0.00 72 1020.0
20260506195307 10 157 0.0 0.0 0.00 0.25 0.00 72 1019.7
20260506195207 10 157 0.0 0.0 0.00 0.25 0.00 72 1019.9
20260506195107 10 157 0.0 0.0 0.00 0.25 0.00 72 1019.9
20260506195007 10 157 0.0 0.0 0.00 0.25 0.00 72 1019.9
20260506194907 10 157 0.0 0.0 0.00 0.25 0.00 72 1019.7
20260506194807 10 157 0.0 0.0 0.00 0.25 0.00 72 1019.7
20260506194707 10 157 0.0 0.0 0.00 0.25 0.00 72 1019.7
20260506194607 10 157 0.0 0.0 0.00 0.25 0.00 72 1019.7
20260506194507 10 157 0.0 0.0 0.00 0.25 0.00 72 1019.7
20260506194407 10 157 0.0 0.0 0.00 0.25 0.00 71 1019.7
20260506194307 10 157 0.0 0.0 0.00 0.25 0.00 71 1019.7
20260506194207 10 157 0.0 0.0 0.00 0.25 0.00 71 1019.7
20260506194107 10 157 0.0 0.0 0.00 0.25 0.00 71 1019.7
20260506194007 10 157 0.0 0.0 0.00 0.25 0.00 71 1019.7
20260506193907 10 180 0.0 0.0 0.00 0.25 0.00 71 1019.7
20260506193807 10 157 0.0 0.0 0.00 0.25 0.00 71 1019.7
20260506193707 10 180 0.0 0.0 0.00 0.25 0.00 71 1019.7
20260506193607 10 157 0.0 0.0 0.00 0.25 0.00 71 1019.7
20260506193507 10 157 0.0 0.0 0.00 0.25 0.00 71 1019.7
20260506193407 10 157 0.0 0.0 0.00 0.25 0.00 71 1019.5
20260506193307 10 157 0.0 0.0 0.00 0.25 0.00 71 1019.5
20260506193207 10 157 0.0 0.0 0.00 0.25 0.00 71 1019.5
20260506193107 10 157 0.0 0.0 0.00 0.25 0.00 71 1019.7
20260506193007 10 157 0.0 0.0 0.00 0.25 0.00 71 1019.5
20260506192907 10 157 0.0 0.0 0.00 0.25 0.00 71 1019.5
20260506192807 10 157 0.0 0.0 0.00 0.25 0.00 71 1019.5
20260506192707 10 157 0.0 0.0 0.00 0.25 0.00 71 1019.5
20260506192607 10 157 0.0 0.0 0.00 0.25 0.00 71 1019.5
20260506192507 10 157 0.0 0.0 0.00 0.25 0.00 71 1019.5
20260506192407 10 180 0.0 0.0 0.00 0.25 0.00 71 1019.5
20260506192307 10 180 0.0 0.0 0.00 0.25 0.00 71 1019.5
20260506192207 10 157 0.0 0.0 0.00 0.25 0.00 71 1019.5
20260506192107 10 157 0.0 0.0 0.00 0.25 0.00 71 1019.5
20260506192007 10 180 0.0 0.0 0.00 0.25 0.00 71 1019.5
20260506191907 10 180 0.0 0.0 0.00 0.25 0.00 71 1019.5
20260506191807 10 180 0.0 0.0 0.00 0.25 0.00 71 1019.5
20260506191707 10 180 0.0 0.0 0.00 0.25 0.00 71 1019.5
20260506191607 10 180 0.0 0.0 0.00 0.25 0.00 71 1019.4
20260506191507 10 180 0.0 0.0 0.00 0.25 0.00 71 1019.4
20260506191407 10 180 0.0 0.0 0.00 0.25 0.00 71 1019.2
20260506191307 10 180 0.0 0.0 0.00 0.25 0.00 71 1019.4
20260506191207 10 180 0.0 0.0 0.00 0.25 0.00 70 1019.4
20260506191107 10 180 0.0 0.0 0.00 0.25 0.00 70 1019.4
20260506191007 10 180 0.0 0.0 0.00 0.25 0.00 70 1019.4
20260506190907 10 180 0.0 0.0 0.00 0.25 0.00 70 1019.2
20260506190807 10 180 0.0 0.0 0.00 0.25 0.00 70 1019.2
20260506190707 10 180 0.0 0.0 0.00 0.25 0.00 70 1019.2
20260506190607 10 180 0.0 0.0 0.00 0.25 0.00 70 1019.2
20260506190507 10 180 0.0 0.0 0.00 0.25 0.00 70 1019.0
20260506190407 10 180 0.0 0.0 0.00 0.25 0.00 70 1019.2
20260506190307 10 180 0.0 0.0 0.00 0.25 0.00 70 1019.2
20260506190207 10 180 8.0 0.0 0.00 0.25 0.00 70 1019.2
20260506190107 10 180 0.0 0.0 0.00 0.25 0.00 70 1019.0
20260506190007 10 180 0.0 0.0 0.00 0.25 0.00 70 1019.0
20260506185907 10 202 0.0 0.0 0.00 0.25 0.00 70 1019.0
20260506185807 10 202 1.6 0.0 0.00 0.25 0.00 70 1019.2
20260506185707 10 180 0.0 0.0 0.00 0.25 0.00 70 1019.0
20260506185607 10 180 0.0 0.0 0.00 0.25 0.00 70 1019.0
20260506185507 10 202 0.0 0.0 0.00 0.25 0.00 70 1019.0
20260506185407 10 202 0.0 0.0 0.00 0.25 0.00 70 1019.0
20260506185307 10 202 11.3 0.0 0.00 0.25 0.00 70 1019.0
20260506185207 10 202 0.0 0.0 0.00 0.25 0.00 70 1019.0
20260506185107 10 202 8.0 0.0 0.00 0.25 0.00 70 1019.0
20260506185007 10 202 3.2 0.0 0.00 0.25 0.00 70 1019.0
20260506184907 10 202 0.0 0.0 0.00 0.25 0.00 70 1019.0
20260506184807 10 202 1.6 0.0 0.00 0.25 0.00 70 1019.0
20260506184707 10 202 0.0 0.0 0.00 0.25 0.00 70 1019.0
20260506184607 10 180 0.0 0.0 0.00 0.25 0.00 70 1019.0
20260506184507 11 180 0.0 0.0 0.00 0.25 0.00 70 1019.0
20260506184407 11 180 0.0 0.0 0.00 0.25 0.00 70 1019.0
20260506184307 11 202 0.0 0.0 0.00 0.25 0.00 70 1018.9
20260506184207 11 202 0.0 0.0 0.00 0.25 0.00 70 1018.9
20260506184107 11 180 0.0 0.0 0.00 0.25 0.00 70 1019.0
20260506184007 11 180 0.0 0.0 0.00 0.25 0.00 70 1019.0
20260506183907 11 180 3.2 0.0 0.00 0.25 0.00 70 1018.9
20260506183807 11 180 0.0 0.0 0.00 0.25 0.00 70 1018.9
20260506183707 11 180 0.0 0.0 0.00 0.25 0.00 70 1018.9
20260506183607 11 202 0.0 0.0 0.00 0.25 0.00 69 1018.9
20260506183507 11 202 0.0 0.0 0.00 0.25 0.00 69 1018.7
20260506183407 11 202 0.0 0.0 0.00 0.25 0.00 69 1018.9
20260506183307 11 202 4.8 0.0 0.00 0.25 0.00 69 1018.7
20260506183207 11 202 6.4 0.0 0.00 0.25 0.00 69 1018.9
20260506183107 11 180 6.4 0.0 0.00 0.25 0.00 69 1018.9
20260506183007 11 180 0.0 0.0 0.00 0.25 0.00 69 1018.7
20260506182907 11 180 0.0 0.0 0.00 0.25 0.00 69 1018.7
20260506182807 11 180 0.0 0.0 0.00 0.25 0.00 69 1018.7
20260506182707 11 180 0.0 0.0 0.00 0.25 0.00 69 1018.7
20260506182607 11 180 6.4 0.0 0.00 0.25 0.00 69 1018.9
20260506182507 11 180 0.0 0.0 0.00 0.25 0.00 69 1018.7
20260506182407 11 180 0.0 0.0 0.00 0.25 0.00 69 1018.9
20260506182307 11 180 0.0 0.0 0.00 0.25 0.00 69 1018.9
20260506182207 11 180 0.0 0.0 0.00 0.25 0.00 69 1018.7
20260506182107 11 180 0.0 0.0 0.00 0.25 0.00 69 1018.9
20260506182007 11 180 0.0 0.0 0.00 0.25 0.00 69 1018.7
20260506181907 11 180 0.0 0.0 0.00 0.25 0.00 69 1018.9
20260506181807 11 180 0.0 0.0 0.00 0.25 0.00 69 1018.7
20260506181707 11 180 0.0 0.0 0.00 0.25 0.00 69 1018.9
20260506181607 11 180 0.0 0.0 0.00 0.25 0.00 69 1018.7
20260506181507 11 180 0.0 0.0 0.00 0.25 0.00 69 1018.9
20260506181407 11 180 0.0 0.0 0.00 0.25 0.00 69 1018.9
20260506181307 11 180 0.0 0.0 0.00 0.25 0.00 68 1018.7
20260506181207 11 180 3.2 0.0 0.00 0.25 0.00 68 1018.7
20260506181107 11 180 0.0 0.0 0.00 0.25 0.00 68 1018.7
20260506181007 11 180 0.0 0.0 0.00 0.25 0.00 68 1018.9
20260506180907 11 180 0.0 0.0 0.00 0.25 0.00 68 1018.7
20260506180807 11 180 0.0 0.0 0.00 0.25 0.00 68 1018.7
20260506180707 11 180 0.0 0.0 0.00 0.25 0.00 68 1018.7
20260506180607 11 180 0.0 0.0 0.00 0.25 0.00 68 1018.7
20260506180507 11 180 0.0 0.0 0.00 0.25 0.00 68 1018.7
20260506180407 11 180 0.0 0.0 0.00 0.25 0.00 68 1018.7
20260506180307 11 180 0.0 0.0 0.00 0.25 0.00 68 1018.5
20260506180207 12 180 0.0 0.0 0.00 0.25 0.00 68 1018.5
20260506180107 12 180 11.3 0.0 0.00 0.25 0.00 68 1018.7
20260506180007 12 180 0.0 0.0 0.00 0.25 0.00 68 1018.5
20260506175907 12 180 0.0 0.0 0.00 0.25 0.00 68 1018.5
20260506175807 12 180 0.0 0.0 0.00 0.25 0.00 68 1018.5
20260506175707 12 180 0.0 0.0 0.00 0.25 0.00 68 1018.5
20260506175607 12 180 0.0 0.0 0.00 0.25 0.00 68 1018.5
20260506175507 12 180 0.0 0.0 0.00 0.25 0.00 68 1018.5
20260506175407 12 180 0.0 0.0 0.00 0.25 0.00 68 1018.5
20260506175307 12 202 0.0 0.0 0.00 0.25 0.00 68 1018.5
20260506175207 12 202 0.0 0.0 0.00 0.25 0.00 68 1018.5
20260506175107 12 202 14.5 0.0 0.00 0.25 0.00 68 1018.5
20260506175007 12 202 6.4 0.0 0.00 0.25 0.00 68 1018.4
20260506174907 12 202 4.8 0.0 0.00 0.25 0.00 68 1018.4
20260506174807 12 202 0.0 0.0 0.00 0.25 0.00 68 1018.4
20260506174707 12 202 3.2 0.0 0.00 0.25 0.00 68 1018.5
20260506174607 12 202 0.0 0.0 0.00 0.25 0.00 68 1018.5
20260506174507 12 180 3.2 0.0 0.00 0.25 0.00 68 1018.7
20260506174407 12 202 9.7 0.0 0.00 0.25 0.00 68 1018.5
20260506174307 12 202 0.0 0.0 0.00 0.25 0.00 68 1018.5
20260506174207 12 202 0.0 0.0 0.00 0.25 0.00 68 1018.5
20260506174107 12 157 11.3 0.0 0.00 0.25 0.00 68 1018.5
20260506174007 12 202 0.0 0.0 0.00 0.25 0.00 68 1018.5
20260506173907 12 202 8.0 0.0 0.00 0.25 0.00 68 1018.5
20260506173807 12 180 3.2 0.0 0.00 0.25 0.00 68 1018.5
20260506173707 12 157 4.8 0.0 0.00 0.25 0.00 68 1018.5
20260506173607 12 180 9.7 0.0 0.00 0.25 0.00 68 1018.5
20260506173507 12 180 0.0 0.0 0.00 0.25 0.00 67 1018.5
20260506173407 12 180 8.0 0.0 0.00 0.25 0.00 67 1018.5
20260506173307 12 157 14.5 0.0 0.00 0.25 0.00 67 1018.5
20260506173207 12 180 12.9 0.0 0.00 0.25 0.00 67 1018.5
20260506173107 12 202 16.1 0.0 0.00 0.25 0.00 67 1018.4
20260506173007 12 180 9.7 0.0 0.00 0.25 0.00 67 1018.4
20260506172907 12 180 0.0 0.0 0.00 0.25 0.00 67 1018.4
20260506172807 12 180 14.5 0.0 0.00 0.25 0.00 67 1018.4
20260506172707 12 202 14.5 0.0 0.00 0.25 0.00 67 1018.2
20260506172607 12 180 14.5 0.0 0.00 0.25 0.00 67 1018.4
20260506172507 12 180 6.4 0.0 0.00 0.25 0.00 67 1018.2
20260506172407 12 157 3.2 0.0 0.00 0.25 0.00 67 1018.2
20260506172307 12 180 6.4 0.0 0.00 0.25 0.00 67 1018.2
20260506172207 12 180 0.0 0.0 0.00 0.25 0.00 67 1018.2
20260506172107 12 202 6.4 0.0 0.00 0.25 0.00 67 1018.2
20260506172007 12 180 8.0 0.0 0.00 0.25 0.00 67 1018.2
20260506171907 12 180 4.8 0.0 0.00 0.25 0.00 67 1018.2
20260506171807 12 202 17.7 0.0 0.00 0.25 0.00 67 1018.2
20260506171707 12 180 3.2 0.0 0.00 0.25 0.00 67 1018.2
20260506171607 12 157 12.9 0.0 0.00 0.25 0.00 67 1018.2
20260506171507 12 180 11.3 0.0 0.00 0.25 0.00 67 1018.2
20260506171407 12 202 16.1 0.0 0.00 0.25 0.00 67 1018.2
20260506171307 13 202 0.0 0.0 0.00 0.25 0.00 67 1018.2
20260506171207 13 180 294.5 0.0 0.00 0.25 0.00 67 1018.0
20260506171107 13 202 12.9 0.0 0.00 0.25 0.00 66 1018.0
20260506171007 13 180 1.6 0.0 0.00 0.25 0.00 66 1018.0
20260506170907 13 180 3.2 0.0 0.00 0.25 0.00 66 1018.0
20260506170807 13 180 8.0 0.0 0.00 0.25 0.00 66 1018.0
20260506170707 13 202 4.8 0.0 0.00 0.25 0.00 67 1018.0
20260506170607 13 180 4.8 0.0 0.00 0.25 0.00 67 1018.0
20260506170507 13 180 1.6 0.0 0.00 0.25 0.00 67 1017.9
20260506170407 13 180 0.0 0.0 0.00 0.25 0.00 67 1017.9
20260506170307 13 180 0.0 0.0 0.00 0.25 0.00 67 1017.7
20260506170207 13 180 6.4 0.0 0.00 0.25 0.00 67 1017.9
20260506170107 13 180 0.0 0.0 0.00 0.25 0.00 67 1017.7
20260506170007 13 225 19.3 0.0 0.00 0.25 0.00 67 1017.7
20260506165907 13 180 4.8 0.0 0.00 0.25 0.00 67 1017.7
20260506165807 13 180 0.0 0.0 0.00 0.25 0.00 67 1018.0
20260506165707 13 180 0.0 0.0 0.00 0.25 0.00 67 1018.0
20260506165607 13 202 14.5 0.0 0.00 0.25 0.00 67 1018.0
20260506165507 13 180 1.6 0.0 0.00 0.25 0.00 67 1018.0
20260506165407 13 180 3.2 0.0 0.00 0.25 0.00 67 1017.9
20260506165307 13 180 0.0 0.0 0.00 0.25 0.00 67 1018.0
20260506165207 13 202 3.2 0.0 0.00 0.25 0.00 67 1017.9
20260506165107 13 180 11.3 0.0 0.00 0.25 0.00 67 1017.9
20260506165007 13 202 3.2 0.0 0.00 0.25 0.00 67 1017.7
20260506164907 13 180 0.0 0.0 0.00 0.25 0.00 67 1017.7
20260506164807 13 180 1.6 0.0 0.00 0.25 0.00 67 1017.7
20260506164707 13 180 14.5 0.0 0.00 0.25 0.00 67 1017.9
20260506164607 13 202 0.0 0.0 0.00 0.25 0.00 67 1017.9
20260506164507 13 202 0.0 0.0 0.00 0.25 0.00 67 1017.7
20260506164407 13 202 0.0 0.0 0.00 0.25 0.00 67 1017.5
20260506164307 13 225 6.4 0.0 0.00 0.25 0.00 67 1017.5
20260506164207 13 202 0.0 0.0 0.00 0.25 0.00 67 1017.5
20260506164107 13 202 20.9 0.0 0.00 0.25 0.00 67 1017.5
20260506164007 13 180 0.0 0.0 0.00 0.25 0.00 67 1017.5
20260506163907 13 180 6.4 0.0 0.00 0.25 0.00 67 1017.7
20260506163807 13 180 3.2 0.0 0.00 0.25 0.00 67 1017.7
20260506163707 13 225 0.0 0.0 0.00 0.25 0.00 67 1017.5
20260506163607 13 202 6.4 0.0 0.00 0.25 0.00 67 1017.5
20260506163507 13 202 0.0 0.0 0.00 0.25 0.00 67 1017.5
20260506163407 14 202 0.0 0.0 0.00 0.25 0.00 67 1017.5
20260506163307 14 202 8.0 0.0 0.00 0.25 0.00 67 1017.5
20260506163207 14 225 11.3 0.0 0.00 0.25 0.00 67 1017.5
20260506163107 14 202 3.2 0.0 0.00 0.25 0.00 67 1017.7
20260506163007 14 202 0.0 0.0 0.00 0.25 0.00 67 1017.5
20260506162907 14 202 0.0 0.0 0.00 0.25 0.00 67 1017.7
20260506162807 14 202 0.0 0.0 0.00 0.25 0.00 67 1017.5
20260506162707 14 202 6.4 0.0 0.00 0.25 0.00 67 1017.5
20260506162607 14 225 6.4 0.0 0.00 0.25 0.00 67 1017.5
20260506162507 14 225 3.2 0.0 0.00 0.25 0.00 67 1017.7
20260506162407 14 225 6.4 0.0 0.00 0.25 0.00 67 1017.5